Time,TemperatureF,DewpointF,PressureIn,WindDirection,WindDirectionDegrees,WindSpeedMPH,WindSpeedGustMPH,Humidity,HourlyPrecipIn,Conditions,Clouds,dailyrainin,SolarRadiationWatts/m^2,SoftwareType,DateUTC
2013-10-22 00:00:00,81.5,76.9,29.95,East,80,1.0,2.0,86,0.00,,FEW,0.00,0.00,VWS V14.01,2013-10-22 04:00:00,
2013-10-22 00:01:00,81.5,76.9,29.95,ENE,71,2.0,3.0,86,0.00,,FEW,0.00,0.00,VWS V14.01,2013-10-22 04:01:00,
2013-10-22 00:06:00,81.4,76.5,29.94,ESE,118,1.0,1.0,85,0.00,,FEW,0.00,0.00,VWS V14.01,2013-10-22 04:06:00,
2013-10-22 00:11:00,81.5,76.6,29.94,ENE,76,0.0,3.0,85,0.00,,FEW,0.00,0.00,VWS V14.01,2013-10-22 04:11:00,
2013-10-22 00:12:00,81.4,76.5,29.94,ENE,76,1.0,3.0,85,0.00,,FEW,0.00,0.00,VWS V14.01,2013-10-22 04:12:00,
2013-10-22 00:16:00,81.4,76.5,29.94,ENE,76,0.0,2.0,85,0.00,,FEW,0.00,0.00,VWS V14.01,2013-10-22 04:16:00,
2013-10-22 00:17:00,81.5,76.6,29.94,ENE,76,0.0,2.0,85,0.00,,FEW,0.00,0.00,VWS V14.01,2013-10-22 04:17:00,
2013-10-22 00:21:00,81.4,76.5,29.95,East,83,1.0,2.0,85,0.00,,FEW,0.00,0.00,VWS V14.01,2013-10-22 04:21:00,
2013-10-22 00:22:00,81.4,76.5,29.95,ENE,65,3.0,3.0,85,0.00,,FEW,0.00,0.00,VWS V14.01,2013-10-22 04:22:00,
2013-10-22 00:26:00,81.4,76.5,29.95,ENE,69,1.0,1.0,85,0.00,,FEW,0.00,0.00,VWS V14.01,2013-10-22 04:26:00,
2013-10-22 00:27:00,81.4,76.5,29.95,ENE,69,0.0,1.0,85,0.00,,FEW,0.00,0.00,VWS V14.01,2013-10-22 04:27:00,
2013-10-22 00:28:00,81.4,76.5,29.95,ENE,69,1.0,2.0,85,0.00,,FEW,0.00,0.00,VWS V14.01,2013-10-22 04:28:00,
2013-10-22 00:31:00,81.4,76.5,29.95,ENE,69,2.0,2.0,85,0.00,,FEW,0.00,0.00,VWS V14.01,2013-10-22 04:31:00,
2013-10-22 00:32:00,81.4,76.5,29.95,ENE,70,2.0,2.0,85,0.00,,FEW,0.00,0.00,VWS V14.01,2013-10-22 04:32:00,
2013-10-22 00:33:00,81.4,76.5,29.94,SE,124,4.0,5.0,85,0.00,,FEW,0.00,0.00,VWS V14.01,2013-10-22 04:33:00,
2013-10-22 00:36:00,81.4,76.5,29.94,SE,130,2.0,2.0,85,0.00,,FEW,0.00,0.00,VWS V14.01,2013-10-22 04:36:00,
2013-10-22 00:38:00,81.5,76.2,29.94,SE,136,3.0,5.0,84,0.00,,FEW,0.00,0.00,VWS V14.01,2013-10-22 04:38:00,
2013-10-22 00:41:00,81.5,76.2,29.94,SE,137,2.0,5.0,84,0.00,,FEW,0.00,0.00,VWS V14.01,2013-10-22 04:41:00,
2013-10-22 00:42:00,81.5,76.2,29.94,SE,137,0.0,5.0,84,0.00,,FEW,0.00,0.00,VWS V14.01,2013-10-22 04:42:00,
2013-10-22 00:43:00,81.5,76.2,29.94,SE,126,2.0,5.0,84,0.00,,FEW,0.00,0.00,VWS V14.01,2013-10-22 04:43:00,
2013-10-22 00:45:00,81.5,76.2,29.94,SE,127,1.0,2.0,84,0.00,,FEW,0.00,0.00,VWS V14.01,2013-10-22 04:45:00,
2013-10-22 00:46:00,81.6,76.3,29.94,SE,127,1.0,2.0,84,0.00,,FEW,0.00,0.00,VWS V14.01,2013-10-22 04:46:00,
2013-10-22 00:47:00,81.6,76.3,29.94,SE,127,0.0,2.0,84,0.00,,FEW,0.00,0.00,VWS V14.01,2013-10-22 04:47:00,
2013-10-22 00:48:00,81.6,76.3,29.94,SE,127,0.0,2.0,84,0.00,,FEW,0.00,0.00,VWS V14.01,2013-10-22 04:48:00,
2013-10-22 00:49:00,81.6,76.3,29.94,ESE,115,2.0,2.0,84,0.00,,FEW,0.00,0.00,VWS V14.01,2013-10-22 04:49:00,
2013-10-22 00:50:00,81.6,76.7,29.94,SE,128,5.0,6.0,85,0.00,,FEW,0.00,0.00,VWS V14.01,2013-10-22 04:50:00,
2013-10-22 00:51:00,81.6,76.3,29.94,SE,130,1.0,6.0,84,0.00,,FEW,0.00,0.00,VWS V14.01,2013-10-22 04:51:00,
2013-10-22 00:53:00,81.6,76.3,29.94,ESE,118,2.0,6.0,84,0.00,,FEW,0.00,0.00,VWS V14.01,2013-10-22 04:53:00,
2013-10-22 00:54:00,81.6,76.3,29.94,ESE,119,1.0,6.0,84,0.00,,FEW,0.00,0.00,VWS V14.01,2013-10-22 04:54:00,
2013-10-22 00:55:00,81.6,76.3,29.94,ESE,119,0.0,1.0,84,0.00,,FEW,0.00,0.00,VWS V14.01,2013-10-22 04:55:00,
2013-10-22 00:56:00,81.6,76.3,29.94,ESE,119,0.0,1.0,84,0.00,,FEW,0.00,0.00,VWS V14.01,2013-10-22 04:56:00,
2013-10-22 00:58:00,81.6,76.3,29.94,ESE,119,1.0,1.0,84,0.00,,FEW,0.00,0.00,VWS V14.01,2013-10-22 04:58:00,
2013-10-22 00:59:00,81.6,76.3,29.94,SE,126,1.0,2.0,84,0.00,,FEW,0.00,0.00,VWS V14.01,2013-10-22 04:59:00,
2013-10-22 01:00:00,81.6,76.3,29.94,SE,127,1.0,2.0,84,0.00,,FEW,0.00,0.00,VWS V14.01,2013-10-22 05:00:00,
2013-10-22 01:01:00,81.6,76.3,29.94,SE,126,2.0,2.0,84,0.00,,FEW,0.00,0.00,VWS V14.01,2013-10-22 05:01:00,
2013-10-22 01:03:00,81.6,76.3,29.94,SE,130,0.0,2.0,84,0.00,,FEW,0.00,0.00,VWS V14.01,2013-10-22 05:03:00,
2013-10-22 01:04:00,81.6,76.3,29.94,SE,130,0.0,2.0,84,0.00,,FEW,0.00,0.00,VWS V14.01,2013-10-22 05:04:00,
2013-10-22 01:05:00,81.6,76.3,29.94,SE,129,2.0,2.0,84,0.00,,FEW,0.00,0.00,VWS V14.01,2013-10-22 05:05:00,
2013-10-22 01:06:00,81.6,76.3,29.94,SE,136,2.0,3.0,84,0.00,,FEW,0.00,0.00,VWS V14.01,2013-10-22 05:06:00,
2013-10-22 01:08:00,81.6,76.3,29.94,ESE,107,0.0,3.0,84,0.00,,FEW,0.00,0.00,VWS V14.01,2013-10-22 05:08:00,
2013-10-22 01:09:00,81.6,76.3,29.94,ENE,65,0.0,3.0,84,0.00,,FEW,0.00,0.00,VWS V14.01,2013-10-22 05:09:00,
2013-10-22 01:11:00,81.6,76.3,29.94,East,99,2.0,3.0,84,0.00,,FEW,0.00,0.00,VWS V14.01,2013-10-22 05:11:00,
2013-10-22 01:12:00,81.6,76.3,29.94,SE,140,1.0,3.0,84,0.00,,FEW,0.00,0.00,VWS V14.01,2013-10-22 05:12:00,
2013-10-22 01:13:00,81.7,76.4,29.94,SE,135,0.0,3.0,84,0.00,,FEW,0.00,0.00,VWS V14.01,2013-10-22 05:13:00,
2013-10-22 01:14:00,81.7,76.4,29.94,SE,128,4.0,5.0,84,0.00,,FEW,0.00,0.00,VWS V14.01,2013-10-22 05:14:00,
2013-10-22 01:16:00,81.7,76.4,29.94,SE,136,0.0,5.0,84,0.00,,FEW,0.00,0.00,VWS V14.01,2013-10-22 05:16:00,
2013-10-22 01:17:00,81.8,76.5,29.94,SE,136,0.0,5.0,84,0.00,,FEW,0.00,0.00,VWS V14.01,2013-10-22 05:17:00,
2013-10-22 01:18:00,81.8,76.5,29.94,SE,134,0.0,5.0,84,0.00,,FEW,0.00,0.00,VWS V14.01,2013-10-22 05:18:00,
2013-10-22 01:19:00,81.8,76.5,29.94,SE,134,0.0,5.0,84,0.00,,FEW,0.00,0.00,VWS V14.01,2013-10-22 05:19:00,
2013-10-22 01:22:00,81.8,76.5,29.94,SE,141,1.0,5.0,84,0.00,,FEW,0.00,0.00,VWS V14.01,2013-10-22 05:22:00,
2013-10-22 01:23:00,81.9,76.6,29.94,SE,135,2.0,5.0,84,0.00,,FEW,0.00,0.00,VWS V14.01,2013-10-22 05:23:00,
2013-10-22 01:24:00,81.8,76.5,29.94,East,98,5.0,5.0,84,0.00,,FEW,0.00,0.00,VWS V14.01,2013-10-22 05:24:00,
2013-10-22 01:27:00,81.8,76.5,29.94,ESE,122,1.0,5.0,84,0.00,,FEW,0.00,0.00,VWS V14.01,2013-10-22 05:27:00,
2013-10-22 01:28:00,81.8,76.5,29.94,SE,138,0.0,5.0,84,0.00,,FEW,0.00,0.00,VWS V14.01,2013-10-22 05:28:00,
2013-10-22 01:29:00,81.8,76.5,29.94,East,96,0.0,5.0,84,0.00,,FEW,0.00,0.00,VWS V14.01,2013-10-22 05:29:00,
2013-10-22 01:30:00,81.8,76.5,29.94,East,96,0.0,5.0,84,0.00,,FEW,0.00,0.00,VWS V14.01,2013-10-22 05:30:00,
2013-10-22 01:32:00,81.8,76.5,29.94,East,101,2.0,5.0,84,0.00,,FEW,0.00,0.00,VWS V14.01,2013-10-22 05:32:00,
2013-10-22 01:33:00,81.7,76.4,29.94,SE,127,0.0,5.0,84,0.00,,FEW,0.00,0.00,VWS V14.01,2013-10-22 05:33:00,
2013-10-22 01:35:00,81.7,76.4,29.94,East,98,1.0,1.0,84,0.00,,FEW,0.00,0.00,VWS V14.01,2013-10-22 05:35:00,
2013-10-22 01:37:00,81.7,76.4,29.94,ESE,112,0.0,2.0,84,0.00,,FEW,0.00,0.00,VWS V14.01,2013-10-22 05:37:00,
2013-10-22 01:38:00,81.7,76.4,29.94,ESE,107,0.0,2.0,84,0.00,,FEW,0.00,0.00,VWS V14.01,2013-10-22 05:38:00,
2013-10-22 01:39:00,81.7,76.4,29.94,SE,140,0.0,3.0,84,0.00,,FEW,0.00,0.00,VWS V14.01,2013-10-22 05:39:00,
2013-10-22 01:40:00,81.7,76.4,29.94,SE,140,0.0,3.0,84,0.00,,FEW,0.00,0.00,VWS V14.01,2013-10-22 05:40:00,
2013-10-22 01:42:00,81.7,76.4,29.94,SSE,155,1.0,3.0,84,0.00,,FEW,0.00,0.00,VWS V14.01,2013-10-22 05:42:00,
2013-10-22 01:43:00,81.7,76.4,29.94,SSE,155,0.0,3.0,84,0.00,,FEW,0.00,0.00,VWS V14.01,2013-10-22 05:43:00,
2013-10-22 01:44:00,81.7,76.4,29.94,SE,129,2.0,3.0,84,0.00,,FEW,0.00,0.00,VWS V14.01,2013-10-22 05:44:00,
2013-10-22 01:45:00,81.7,76.4,29.94,ESE,114,2.0,2.0,84,0.00,,FEW,0.00,0.00,VWS V14.01,2013-10-22 05:45:00,
2013-10-22 01:47:00,81.7,76.0,29.94,SE,132,0.0,3.0,83,0.00,,FEW,0.00,0.00,VWS V14.01,2013-10-22 05:47:00,
2013-10-22 01:48:00,81.7,76.0,29.94,ENE,74,1.0,3.0,83,0.00,,FEW,0.00,0.00,VWS V14.01,2013-10-22 05:48:00,
2013-10-22 01:49:00,81.7,76.0,29.94,SE,129,2.0,3.0,83,0.00,,FEW,0.00,0.00,VWS V14.01,2013-10-22 05:49:00,
2013-10-22 01:50:00,81.8,76.1,29.94,East,86,0.0,3.0,83,0.00,,FEW,0.00,0.00,VWS V14.01,2013-10-22 05:50:00,
2013-10-22 01:53:00,81.8,76.1,29.94,SE,134,3.0,5.0,83,0.00,,FEW,0.00,0.00,VWS V14.01,2013-10-22 05:53:00,
2013-10-22 01:54:00,81.8,76.5,29.94,SE,133,2.0,2.0,84,0.00,,FEW,0.00,0.00,VWS V14.01,2013-10-22 05:54:00,
2013-10-22 01:55:00,81.8,76.5,29.94,SE,127,2.0,2.0,84,0.00,,FEW,0.00,0.00,VWS V14.01,2013-10-22 05:55:00,
2013-10-22 01:58:00,81.8,76.5,29.94,SE,140,2.0,3.0,84,0.00,,FEW,0.00,0.00,VWS V14.01,2013-10-22 05:58:00,
2013-10-22 01:59:00,81.9,76.6,29.94,SSE,147,1.0,3.0,84,0.00,,FEW,0.00,0.00,VWS V14.01,2013-10-22 05:59:00,
2013-10-22 02:00:00,81.9,76.6,29.94,SE,126,0.0,3.0,84,0.00,,FEW,0.00,0.00,VWS V14.01,2013-10-22 06:00:00,
2013-10-22 02:03:00,81.9,76.6,29.94,SE,136,2.0,3.0,84,0.00,,FEW,0.00,0.00,VWS V14.01,2013-10-22 06:03:00,
2013-10-22 02:04:00,81.9,76.6,29.94,East,88,2.0,2.0,84,0.00,,FEW,0.00,0.00,VWS V14.01,2013-10-22 06:04:00,
2013-10-22 02:05:00,81.9,76.6,29.94,SE,126,2.0,3.0,84,0.00,,FEW,0.00,0.00,VWS V14.01,2013-10-22 06:05:00,
2013-10-22 02:06:00,81.9,76.6,29.94,SE,144,1.0,3.0,84,0.00,,FEW,0.00,0.00,VWS V14.01,2013-10-22 06:06:00,
2013-10-22 02:08:00,81.9,76.6,29.94,SE,126,0.0,3.0,84,0.00,,FEW,0.00,0.00,VWS V14.01,2013-10-22 06:08:00,
2013-10-22 02:09:00,81.9,76.6,29.94,East,89,0.0,3.0,84,0.00,,FEW,0.00,0.00,VWS V14.01,2013-10-22 06:09:00,
2013-10-22 02:10:00,81.9,76.6,29.94,East,89,0.0,3.0,84,0.00,,FEW,0.00,0.00,VWS V14.01,2013-10-22 06:10:00,
2013-10-22 02:11:00,81.9,76.6,29.94,East,89,0.0,3.0,84,0.00,,FEW,0.00,0.00,VWS V14.01,2013-10-22 06:11:00,
2013-10-22 02:13:00,82.0,76.7,29.94,SE,144,3.0,7.0,84,0.00,,FEW,0.00,0.00,VWS V14.01,2013-10-22 06:13:00,
2013-10-22 02:14:00,82.0,76.7,29.94,SE,139,2.0,2.0,84,0.00,,FEW,0.00,0.00,VWS V14.01,2013-10-22 06:14:00,
2013-10-22 02:15:00,82.0,76.7,29.94,SE,137,2.0,2.0,84,0.00,,FEW,0.00,0.00,VWS V14.01,2013-10-22 06:15:00,
2013-10-22 02:16:00,82.0,76.7,29.94,SE,128,2.0,2.0,84,0.00,,FEW,0.00,0.00,VWS V14.01,2013-10-22 06:16:00,
2013-10-22 02:19:00,82.0,77.1,29.94,SE,140,2.0,3.0,85,0.00,,FEW,0.00,0.00,VWS V14.01,2013-10-22 06:19:00,
2013-10-22 02:20:00,82.0,77.1,29.94,East,88,3.0,4.0,85,0.00,,FEW,0.00,0.00,VWS V14.01,2013-10-22 06:20:00,
2013-10-22 02:21:00,82.0,77.1,29.94,SE,128,0.0,4.0,85,0.00,,FEW,0.00,0.00,VWS V14.01,2013-10-22 06:21:00,
2013-10-22 02:22:00,82.0,77.1,29.94,SE,126,2.0,4.0,85,0.00,,FEW,0.00,0.00,VWS V14.01,2013-10-22 06:22:00,
2013-10-22 02:24:00,82.0,76.7,29.94,ESE,117,3.0,4.0,84,0.00,,FEW,0.00,0.00,VWS V14.01,2013-10-22 06:24:00,
2013-10-22 02:25:00,82.0,76.7,29.94,SSE,150,0.0,2.0,84,0.00,,FEW,0.00,0.00,VWS V14.01,2013-10-22 06:25:00,
2013-10-22 02:26:00,82.0,76.7,29.94,ESE,105,2.0,2.0,84,0.00,,FEW,0.00,0.00,VWS V14.01,2013-10-22 06:26:00,
2013-10-22 02:27:00,82.0,76.7,29.94,SE,125,3.0,3.0,84,0.00,,FEW,0.00,0.00,VWS V14.01,2013-10-22 06:27:00,
2013-10-22 02:29:00,81.9,76.6,29.94,ESE,108,2.0,5.0,84,0.00,,FEW,0.00,0.00,VWS V14.01,2013-10-22 06:29:00,
2013-10-22 02:30:00,81.9,76.6,29.94,East,92,2.0,5.0,84,0.00,,FEW,0.00,0.00,VWS V14.01,2013-10-22 06:30:00,
2013-10-22 02:31:00,81.8,76.5,29.94,ENE,63,1.0,5.0,84,0.00,,FEW,0.00,0.00,VWS V14.01,2013-10-22 06:31:00,
2013-10-22 02:32:00,81.8,76.5,29.94,ENE,63,0.0,5.0,84,0.00,,FEW,0.00,0.00,VWS V14.01,2013-10-22 06:32:00,
2013-10-22 02:34:00,81.8,76.5,29.93,ESE,117,1.0,6.0,84,0.00,,FEW,0.00,0.00,VWS V14.01,2013-10-22 06:34:00,
2013-10-22 02:35:00,81.8,76.1,29.93,ESE,117,0.0,1.0,83,0.00,,FEW,0.00,0.00,VWS V14.01,2013-10-22 06:35:00,
2013-10-22 02:36:00,81.8,76.5,29.93,ESE,121,1.0,1.0,84,0.00,,FEW,0.00,0.00,VWS V14.01,2013-10-22 06:36:00,
2013-10-22 02:37:00,81.8,76.5,29.93,East,96,6.0,6.0,84,0.00,,FEW,0.00,0.00,VWS V14.01,2013-10-22 06:37:00,
2013-10-22 02:39:00,81.8,76.1,29.93,ESE,119,2.0,6.0,83,0.00,,FEW,0.00,0.00,VWS V14.01,2013-10-22 06:39:00,
2013-10-22 02:40:00,81.8,76.1,29.93,SE,124,0.0,6.0,83,0.00,,FEW,0.00,0.00,VWS V14.01,2013-10-22 06:40:00,
2013-10-22 02:41:00,81.8,76.1,29.93,ESE,119,2.0,6.0,83,0.00,,FEW,0.00,0.00,VWS V14.01,2013-10-22 06:41:00,
2013-10-22 02:42:00,81.8,76.1,29.93,SE,128,2.0,6.0,83,0.00,,FEW,0.00,0.00,VWS V14.01,2013-10-22 06:42:00,
2013-10-22 02:44:00,81.8,76.1,29.93,ESE,119,0.0,0.0,83,0.00,,FEW,0.00,0.00,VWS V14.01,2013-10-22 06:44:00,
2013-10-22 02:45:00,81.8,76.1,29.93,ESE,119,1.0,1.0,83,0.00,,FEW,0.00,0.00,VWS V14.01,2013-10-22 06:45:00,
2013-10-22 02:46:00,81.9,76.2,29.93,ESE,123,3.0,3.0,83,0.00,,FEW,0.00,0.00,VWS V14.01,2013-10-22 06:46:00,
2013-10-22 02:47:00,81.9,76.2,29.93,ESE,122,0.0,3.0,83,0.00,,FEW,0.00,0.00,VWS V14.01,2013-10-22 06:47:00,
2013-10-22 02:48:00,81.9,76.6,29.92,ESE,117,0.0,3.0,84,0.00,,FEW,0.00,0.00,VWS V14.01,2013-10-22 06:48:00,
2013-10-22 02:49:00,81.9,76.6,29.92,SE,126,0.0,4.0,84,0.00,,FEW,0.00,0.00,VWS V14.01,2013-10-22 06:49:00,
2013-10-22 02:50:00,81.9,76.6,29.92,ESE,113,3.0,4.0,84,0.00,,FEW,0.00,0.00,VWS V14.01,2013-10-22 06:50:00,
2013-10-22 02:51:00,81.9,76.6,29.92,ESE,115,0.0,4.0,84,0.00,,FEW,0.00,0.00,VWS V14.01,2013-10-22 06:51:00,
2013-10-22 02:52:00,81.9,76.6,29.92,SE,137,1.0,4.0,84,0.00,,FEW,0.00,0.00,VWS V14.01,2013-10-22 06:52:00,
2013-10-22 02:53:00,82.0,76.7,29.92,ESE,123,2.0,6.0,84,0.00,,FEW,0.00,0.00,VWS V14.01,2013-10-22 06:53:00,
2013-10-22 02:54:00,82.0,76.7,29.92,ESE,115,0.0,1.0,84,0.00,,FEW,0.00,0.00,VWS V14.01,2013-10-22 06:54:00,
2013-10-22 02:56:00,82.0,76.7,29.92,SE,131,0.0,3.0,84,0.00,,FEW,0.00,0.00,VWS V14.01,2013-10-22 06:56:00,
2013-10-22 02:57:00,82.0,76.7,29.92,East,97,0.0,3.0,84,0.00,,FEW,0.00,0.00,VWS V14.01,2013-10-22 06:57:00,
2013-10-22 02:58:00,82.0,76.7,29.92,East,97,0.0,3.0,84,0.00,,FEW,0.00,0.00,VWS V14.01,2013-10-22 06:58:00,
2013-10-22 02:59:00,82.0,76.7,29.92,East,97,0.0,3.0,84,0.00,,FEW,0.00,0.00,VWS V14.01,2013-10-22 06:59:00,
2013-10-22 03:01:00,82.0,76.7,29.92,East,97,0.0,3.0,84,0.00,,FEW,0.00,0.00,VWS V14.01,2013-10-22 07:01:00,
2013-10-22 03:02:00,82.0,76.7,29.92,ENE,61,1.0,3.0,84,0.00,,FEW,0.00,0.00,VWS V14.01,2013-10-22 07:02:00,
2013-10-22 03:03:00,82.0,76.7,29.92,ENE,61,0.0,3.0,84,0.00,,FEW,0.00,0.00,VWS V14.01,2013-10-22 07:03:00,
2013-10-22 03:04:00,82.0,76.7,29.92,East,84,0.0,3.0,84,0.00,,FEW,0.00,0.00,VWS V14.01,2013-10-22 07:04:00,
2013-10-22 03:05:00,82.0,76.7,29.92,East,90,1.0,1.0,84,0.00,,FEW,0.00,0.00,VWS V14.01,2013-10-22 07:05:00,
2013-10-22 03:06:00,82.1,76.8,29.92,East,93,2.0,2.0,84,0.00,,FEW,0.00,0.00,VWS V14.01,2013-10-22 07:06:00,
2013-10-22 03:08:00,82.1,77.2,29.92,SE,131,0.0,2.0,85,0.00,,FEW,0.00,0.00,VWS V14.01,2013-10-22 07:08:00,
2013-10-22 03:09:00,82.1,77.2,29.92,SE,131,0.0,2.0,85,0.00,,FEW,0.00,0.00,VWS V14.01,2013-10-22 07:09:00,
2013-10-22 03:10:00,82.1,77.2,29.92,ESE,111,2.0,3.0,85,0.00,,FEW,0.00,0.00,VWS V14.01,2013-10-22 07:10:00,
2013-10-22 03:11:00,82.1,77.2,29.92,ESE,111,1.0,3.0,85,0.00,,FEW,0.00,0.00,VWS V14.01,2013-10-22 07:11:00,
2013-10-22 03:13:00,82.1,77.2,29.92,East,101,1.0,3.0,85,0.00,,FEW,0.00,0.00,VWS V14.01,2013-10-22 07:13:00,
2013-10-22 03:14:00,82.2,77.2,29.92,ESE,103,1.0,3.0,85,0.00,,FEW,0.00,0.00,VWS V14.01,2013-10-22 07:14:00,
2013-10-22 03:15:00,82.2,77.2,29.92,SE,124,2.0,2.0,85,0.00,,FEW,0.00,0.00,VWS V14.01,2013-10-22 07:15:00,
2013-10-22 03:16:00,82.2,77.2,29.92,ESE,106,1.0,3.0,85,0.00,,FEW,0.00,0.00,VWS V14.01,2013-10-22 07:16:00,
2013-10-22 03:18:00,82.1,77.2,29.92,ESE,117,2.0,3.0,85,0.00,,FEW,0.00,0.00,VWS V14.01,2013-10-22 07:18:00,
2013-10-22 03:19:00,82.1,77.2,29.91,ESE,120,0.0,5.0,85,0.00,,FEW,0.00,0.00,VWS V14.01,2013-10-22 07:19:00,
2013-10-22 03:20:00,82.1,77.2,29.91,ESE,103,2.0,5.0,85,0.00,,FEW,0.00,0.00,VWS V14.01,2013-10-22 07:20:00,
2013-10-22 03:21:00,82.0,77.1,29.91,SE,134,2.0,5.0,85,0.00,,FEW,0.00,0.00,VWS V14.01,2013-10-22 07:21:00,
2013-10-22 03:22:00,82.0,77.1,29.91,ENE,74,3.0,5.0,85,0.00,,FEW,0.00,0.00,VWS V14.01,2013-10-22 07:22:00,
2013-10-22 03:23:00,82.0,77.1,29.91,ESE,120,0.0,5.0,85,0.00,,FEW,0.00,0.00,VWS V14.01,2013-10-22 07:23:00,
2013-10-22 03:24:00,82.0,77.1,29.91,ESE,113,1.0,2.0,85,0.00,,FEW,0.00,0.00,VWS V14.01,2013-10-22 07:24:00,
2013-10-22 03:25:00,82.0,77.1,29.91,ESE,113,1.0,2.0,85,0.00,,FEW,0.00,0.00,VWS V14.01,2013-10-22 07:25:00,
2013-10-22 03:26:00,82.0,77.1,29.91,SE,134,3.0,3.0,85,0.00,,FEW,0.00,0.00,VWS V14.01,2013-10-22 07:26:00,
2013-10-22 03:27:00,82.0,77.1,29.91,SE,134,2.0,3.0,85,0.00,,FEW,0.00,0.00,VWS V14.01,2013-10-22 07:27:00,
2013-10-22 03:28:00,82.0,77.1,29.91,East,92,0.0,3.0,85,0.00,,FEW,0.00,0.00,VWS V14.01,2013-10-22 07:28:00,
2013-10-22 03:29:00,81.9,76.9,29.91,SE,136,3.0,5.0,85,0.00,,FEW,0.00,0.00,VWS V14.01,2013-10-22 07:29:00,
2013-10-22 03:30:00,81.9,76.6,29.91,SE,140,1.0,5.0,84,0.00,,FEW,0.00,0.00,VWS V14.01,2013-10-22 07:30:00,
2013-10-22 03:31:00,81.9,76.6,29.91,ESE,108,2.0,5.0,84,0.00,,FEW,0.00,0.00,VWS V14.01,2013-10-22 07:31:00,
2013-10-22 03:32:00,81.9,76.6,29.91,SE,128,3.0,5.0,84,0.00,,FEW,0.00,0.00,VWS V14.01,2013-10-22 07:32:00,
2013-10-22 03:33:00,81.9,76.6,29.91,ESE,105,0.0,5.0,84,0.00,,FEW,0.00,0.00,VWS V14.01,2013-10-22 07:33:00,
2013-10-22 03:34:00,81.9,76.6,29.91,South,169,2.0,3.0,84,0.00,,FEW,0.00,0.00,VWS V14.01,2013-10-22 07:34:00,
2013-10-22 03:35:00,81.9,76.6,29.91,SSE,157,1.0,3.0,84,0.00,,FEW,0.00,0.00,VWS V14.01,2013-10-22 07:35:00,
2013-10-22 03:37:00,81.9,76.6,29.91,SE,124,2.0,3.0,84,0.00,,FEW,0.00,0.00,VWS V14.01,2013-10-22 07:37:00,
2013-10-22 03:39:00,81.8,76.5,29.91,SE,131,2.0,5.0,84,0.00,,FEW,0.00,0.00,VWS V14.01,2013-10-22 07:39:00,
2013-10-22 03:40:00,81.9,76.6,29.91,SE,131,0.0,5.0,84,0.00,,FEW,0.00,0.00,VWS V14.01,2013-10-22 07:40:00,
2013-10-22 03:42:00,81.8,76.5,29.91,SE,137,1.0,5.0,84,0.00,,FEW,0.00,0.00,VWS V14.01,2013-10-22 07:42:00,
2013-10-22 03:45:00,81.9,76.6,29.91,SE,134,1.0,3.0,84,0.00,,FEW,0.00,0.00,VWS V14.01,2013-10-22 07:45:00,
2013-10-22 03:46:00,81.9,76.6,29.91,ESE,115,1.0,5.0,84,0.00,,FEW,0.00,0.00,VWS V14.01,2013-10-22 07:46:00,
2013-10-22 03:47:00,82.0,77.1,29.91,SE,131,0.0,5.0,85,0.00,,FEW,0.00,0.00,VWS V14.01,2013-10-22 07:47:00,
2013-10-22 03:48:00,82.0,77.1,29.91,ESE,103,1.0,5.0,85,0.00,,FEW,0.00,0.00,VWS V14.01,2013-10-22 07:48:00,
2013-10-22 03:50:00,82.0,77.1,29.91,SE,146,4.0,5.0,85,0.00,,FEW,0.00,0.00,VWS V14.01,2013-10-22 07:50:00,
2013-10-22 03:51:00,82.0,77.1,29.91,SE,130,3.0,5.0,85,0.00,,FEW,0.00,0.00,VWS V14.01,2013-10-22 07:51:00,
2013-10-22 03:52:00,82.0,77.1,29.91,ESE,104,2.0,5.0,85,0.00,,FEW,0.00,0.00,VWS V14.01,2013-10-22 07:52:00,
2013-10-22 03:53:00,82.0,77.1,29.91,SE,125,2.0,5.0,85,0.00,,FEW,0.00,0.00,VWS V14.01,2013-10-22 07:53:00,
2013-10-22 03:55:00,82.0,77.1,29.91,ESE,111,1.0,2.0,85,0.00,,FEW,0.00,0.00,VWS V14.01,2013-10-22 07:55:00,
2013-10-22 03:56:00,82.0,77.1,29.91,ESE,117,0.0,4.0,85,0.00,,FEW,0.00,0.00,VWS V14.01,2013-10-22 07:56:00,
2013-10-22 03:57:00,82.1,77.2,29.91,SE,129,2.0,4.0,85,0.00,,FEW,0.00,0.00,VWS V14.01,2013-10-22 07:57:00,
2013-10-22 03:58:00,82.1,77.2,29.91,SE,143,1.0,4.0,85,0.00,,FEW,0.00,0.00,VWS V14.01,2013-10-22 07:58:00,
2013-10-22 04:00:00,82.1,77.2,29.91,SE,126,1.0,6.0,85,0.00,,FEW,0.00,0.00,VWS V14.01,2013-10-22 08:00:00,
2013-10-22 04:01:00,82.1,77.2,29.91,ESE,115,0.0,6.0,85,0.00,,FEW,0.00,0.00,VWS V14.01,2013-10-22 08:01:00,
2013-10-22 04:02:00,82.0,77.1,29.91,SE,135,4.0,6.0,85,0.00,,FEW,0.00,0.00,VWS V14.01,2013-10-22 08:02:00,
2013-10-22 04:03:00,82.0,77.1,29.91,SE,134,4.0,6.0,85,0.00,,FEW,0.00,0.00,VWS V14.01,2013-10-22 08:03:00,
2013-10-22 04:05:00,82.0,77.1,29.91,SE,133,3.0,5.0,85,0.00,,FEW,0.00,0.00,VWS V14.01,2013-10-22 08:05:00,
2013-10-22 04:06:00,82.0,77.1,29.91,SE,131,2.0,5.0,85,0.00,,FEW,0.00,0.00,VWS V14.01,2013-10-22 08:06:00,
2013-10-22 04:07:00,82.0,77.1,29.91,ESE,111,8.0,8.0,85,0.00,,FEW,0.00,0.00,VWS V14.01,2013-10-22 08:07:00,
2013-10-22 04:08:00,81.9,76.9,29.91,SE,141,5.0,8.0,85,0.00,,FEW,0.00,0.00,VWS V14.01,2013-10-22 08:08:00,
2013-10-22 04:11:00,81.9,76.6,29.91,SE,131,1.0,8.0,84,0.00,,FEW,0.00,0.00,VWS V14.01,2013-10-22 08:11:00,
2013-10-22 04:12:00,81.9,76.6,29.91,ESE,107,1.0,8.0,84,0.00,,FEW,0.00,0.00,VWS V14.01,2013-10-22 08:12:00,
2013-10-22 04:13:00,81.9,76.9,29.91,SSE,148,4.0,8.0,85,0.00,,FEW,0.00,0.00,VWS V14.01,2013-10-22 08:13:00,
2013-10-22 04:14:00,81.9,76.6,29.91,SE,140,3.0,9.0,84,0.00,,FEW,0.00,0.00,VWS V14.01,2013-10-22 08:14:00,
2013-10-22 04:16:00,81.9,76.6,29.91,SE,126,5.0,5.0,84,0.00,,FEW,0.00,0.00,VWS V14.01,2013-10-22 08:16:00,
2013-10-22 04:17:00,81.8,76.5,29.91,SE,134,4.0,5.0,84,0.00,,FEW,0.00,0.00,VWS V14.01,2013-10-22 08:17:00,
2013-10-22 04:18:00,81.8,76.5,29.91,SE,134,3.0,6.0,84,0.00,,FEW,0.00,0.00,VWS V14.01,2013-10-22 08:18:00,
2013-10-22 04:19:00,81.8,76.5,29.91,SSE,153,5.0,6.0,84,0.00,,FEW,0.00,0.00,VWS V14.01,2013-10-22 08:19:00,
2013-10-22 04:21:00,81.8,76.5,29.91,SSE,153,2.0,6.0,84,0.00,,FEW,0.00,0.00,VWS V14.01,2013-10-22 08:21:00,
2013-10-22 04:22:00,81.8,76.5,29.91,SE,126,5.0,8.0,84,0.00,,FEW,0.00,0.00,VWS V14.01,2013-10-22 08:22:00,
2013-10-22 04:23:00,81.8,76.5,29.91,SSE,148,3.0,8.0,84,0.00,,FEW,0.00,0.00,VWS V14.01,2013-10-22 08:23:00,
2013-10-22 04:24:00,81.8,76.5,29.91,ESE,122,8.0,8.0,84,0.00,,FEW,0.00,0.00,VWS V14.01,2013-10-22 08:24:00,
2013-10-22 04:26:00,81.8,76.5,29.91,SE,135,2.0,9.0,84,0.00,,FEW,0.00,0.00,VWS V14.01,2013-10-22 08:26:00,
2013-10-22 04:27:00,81.8,76.5,29.91,SE,128,4.0,9.0,84,0.00,,FEW,0.00,0.00,VWS V14.01,2013-10-22 08:27:00,
2013-10-22 04:28:00,81.8,76.5,29.91,SE,144,3.0,9.0,84,0.00,,FEW,0.00,0.00,VWS V14.01,2013-10-22 08:28:00,
2013-10-22 04:29:00,81.9,76.6,29.91,SSE,161,2.0,9.0,84,0.00,,FEW,0.00,0.00,VWS V14.01,2013-10-22 08:29:00,
2013-10-22 04:31:00,81.8,76.1,29.91,SE,135,1.0,9.0,83,0.00,,FEW,0.00,0.00,VWS V14.01,2013-10-22 08:31:00,
2013-10-22 04:32:00,81.8,76.1,29.91,SSE,155,2.0,9.0,83,0.00,,FEW,0.00,0.00,VWS V14.01,2013-10-22 08:32:00,
2013-10-22 04:33:00,81.8,76.1,29.91,SE,142,3.0,9.0,83,0.00,,FEW,0.00,0.00,VWS V14.01,2013-10-22 08:33:00,
2013-10-22 04:34:00,81.8,76.1,29.91,ESE,118,4.0,9.0,83,0.00,,FEW,0.00,0.00,VWS V14.01,2013-10-22 08:34:00,
2013-10-22 04:36:00,81.8,76.1,29.91,SE,139,3.0,6.0,83,0.00,,FEW,0.00,0.00,VWS V14.01,2013-10-22 08:36:00,
2013-10-22 04:37:00,81.8,76.1,29.91,ESE,121,2.0,6.0,83,0.00,,FEW,0.00,0.00,VWS V14.01,2013-10-22 08:37:00,
2013-10-22 04:38:00,81.8,76.1,29.91,SE,136,4.0,7.0,83,0.00,,FEW,0.00,0.00,VWS V14.01,2013-10-22 08:38:00,
2013-10-22 04:39:00,81.8,76.1,29.91,SE,138,5.0,7.0,83,0.00,,FEW,0.00,0.00,VWS V14.01,2013-10-22 08:39:00,
2013-10-22 04:42:00,81.8,76.1,29.91,ESE,118,2.0,7.0,83,0.00,,FEW,0.00,0.00,VWS V14.01,2013-10-22 08:42:00,
2013-10-22 04:43:00,81.8,76.1,29.91,ESE,112,5.0,7.0,83,0.00,,FEW,0.00,0.00,VWS V14.01,2013-10-22 08:43:00,
2013-10-22 04:44:00,81.9,76.2,29.91,SE,127,2.0,5.0,83,0.00,,FEW,0.00,0.00,VWS V14.01,2013-10-22 08:44:00,
2013-10-22 04:47:00,81.9,76.2,29.91,SSE,147,4.0,5.0,83,0.00,,FEW,0.00,0.00,VWS V14.01,2013-10-22 08:47:00,
2013-10-22 04:48:00,82.0,76.3,29.91,ESE,117,3.0,5.0,83,0.00,,FEW,0.00,0.00,VWS V14.01,2013-10-22 08:48:00,
2013-10-22 04:50:00,82.0,76.3,29.91,SSE,147,4.0,6.0,83,0.00,,FEW,0.00,0.00,VWS V14.01,2013-10-22 08:50:00,
2013-10-22 04:52:00,82.0,76.3,29.91,ESE,123,3.0,6.0,83,0.00,,FEW,0.00,0.00,VWS V14.01,2013-10-22 08:52:00,
2013-10-22 04:53:00,82.0,76.3,29.91,SE,138,2.0,6.0,83,0.00,,FEW,0.00,0.00,VWS V14.01,2013-10-22 08:53:00,
2013-10-22 04:55:00,82.0,76.3,29.91,SE,142,1.0,3.0,83,0.00,,FEW,0.00,0.00,VWS V14.01,2013-10-22 08:55:00,
2013-10-22 04:56:00,82.0,76.3,29.91,SE,138,2.0,3.0,83,0.00,,FEW,0.00,0.00,VWS V14.01,2013-10-22 08:56:00,
2013-10-22 04:57:00,82.0,76.3,29.91,SSE,155,2.0,4.0,83,0.00,,FEW,0.00,0.00,VWS V14.01,2013-10-22 08:57:00,
2013-10-22 04:58:00,82.0,76.3,29.91,SSE,150,1.0,4.0,83,0.00,,FEW,0.00,0.00,VWS V14.01,2013-10-22 08:58:00,
2013-10-22 05:00:00,82.0,76.3,29.91,SE,133,2.0,4.0,83,0.00,,FEW,0.00,0.00,VWS V14.01,2013-10-22 09:00:00,
2013-10-22 05:01:00,82.0,76.3,29.91,SE,133,2.0,4.0,83,0.00,,FEW,0.00,0.00,VWS V14.01,2013-10-22 09:01:00,
2013-10-22 05:02:00,82.0,76.3,29.91,SE,132,2.0,4.0,83,0.00,,FEW,0.00,0.00,VWS V14.01,2013-10-22 09:02:00,
2013-10-22 05:03:00,81.9,76.2,29.91,SE,129,0.0,4.0,83,0.00,,FEW,0.00,0.00,VWS V14.01,2013-10-22 09:03:00,
2013-10-22 05:04:00,81.9,76.2,29.91,ESE,115,2.0,4.0,83,0.00,,FEW,0.00,0.00,VWS V14.01,2013-10-22 09:04:00,
2013-10-22 05:05:00,81.9,76.2,29.91,SE,142,3.0,3.0,83,0.00,,FEW,0.00,0.00,VWS V14.01,2013-10-22 09:05:00,
2013-10-22 05:06:00,81.9,76.2,29.91,SE,142,1.0,3.0,83,0.00,,FEW,0.00,0.00,VWS V14.01,2013-10-22 09:06:00,
2013-10-22 05:07:00,81.9,76.2,29.91,SE,136,0.0,3.0,83,0.00,,FEW,0.00,0.00,VWS V14.01,2013-10-22 09:07:00,
2013-10-22 05:08:00,81.9,76.2,29.91,SE,128,1.0,3.0,83,0.00,,FEW,0.00,0.00,VWS V14.01,2013-10-22 09:08:00,
2013-10-22 05:09:00,81.9,76.2,29.91,SE,128,1.0,3.0,83,0.00,,FEW,0.00,0.00,VWS V14.01,2013-10-22 09:09:00,
2013-10-22 05:10:00,81.9,76.2,29.91,SE,128,0.0,3.0,83,0.00,,FEW,0.00,0.00,VWS V14.01,2013-10-22 09:10:00,
2013-10-22 05:12:00,81.9,76.2,29.91,SE,128,0.0,3.0,83,0.00,,FEW,0.00,0.00,VWS V14.01,2013-10-22 09:12:00,
2013-10-22 05:13:00,81.9,76.2,29.91,SE,132,2.0,3.0,83,0.00,,FEW,0.00,0.00,VWS V14.01,2013-10-22 09:13:00,
2013-10-22 05:14:00,81.9,76.2,29.91,SE,131,4.0,4.0,83,0.00,,FEW,0.00,0.00,VWS V14.01,2013-10-22 09:14:00,
2013-10-22 05:17:00,81.8,76.1,29.91,SE,135,1.0,5.0,83,0.00,,FEW,0.00,0.00,VWS V14.01,2013-10-22 09:17:00,
2013-10-22 05:18:00,81.8,76.1,29.91,ESE,123,2.0,5.0,83,0.00,,FEW,0.00,0.00,VWS V14.01,2013-10-22 09:18:00,
2013-10-22 05:19:00,81.8,76.1,29.91,SE,134,2.0,5.0,83,0.00,,FEW,0.00,0.00,VWS V14.01,2013-10-22 09:19:00,
2013-10-22 05:22:00,81.8,76.1,29.91,SSE,148,2.0,5.0,83,0.00,,FEW,0.00,0.00,VWS V14.01,2013-10-22 09:22:00,
2013-10-22 05:24:00,81.8,76.1,29.91,SE,144,3.0,5.0,83,0.00,,FEW,0.00,0.00,VWS V14.01,2013-10-22 09:24:00,
2013-10-22 05:25:00,81.8,76.1,29.91,SE,134,2.0,5.0,83,0.00,,FEW,0.00,0.00,VWS V14.01,2013-10-22 09:25:00,
2013-10-22 05:27:00,81.8,76.1,29.91,SSE,157,3.0,7.0,83,0.00,,FEW,0.00,0.00,VWS V14.01,2013-10-22 09:27:00,
2013-10-22 05:29:00,81.8,76.1,29.91,East,99,3.0,7.0,83,0.00,,FEW,0.00,0.00,VWS V14.01,2013-10-22 09:29:00,
2013-10-22 05:30:00,81.8,76.5,29.91,SE,127,4.0,7.0,84,0.00,,FEW,0.00,0.00,VWS V14.01,2013-10-22 09:30:00,
2013-10-22 05:32:00,81.8,76.1,29.91,SE,138,4.0,7.0,83,0.00,,FEW,0.00,0.00,VWS V14.01,2013-10-22 09:32:00,
2013-10-22 05:33:00,81.8,76.1,29.91,ESE,122,4.0,7.0,83,0.00,,FEW,0.00,0.00,VWS V14.01,2013-10-22 09:33:00,
2013-10-22 05:34:00,81.8,76.5,29.91,SE,130,2.0,3.0,84,0.00,,FEW,0.00,0.00,VWS V14.01,2013-10-22 09:34:00,
2013-10-22 05:35:00,81.8,76.5,29.91,SE,138,4.0,4.0,84,0.00,,FEW,0.00,0.00,VWS V14.01,2013-10-22 09:35:00,
2013-10-22 05:37:00,81.9,76.6,29.91,SE,141,2.0,4.0,84,0.00,,FEW,0.00,0.00,VWS V14.01,2013-10-22 09:37:00,
2013-10-22 05:38:00,81.9,76.6,29.91,SE,139,2.0,4.0,84,0.00,,FEW,0.00,0.00,VWS V14.01,2013-10-22 09:38:00,
2013-10-22 05:39:00,81.9,76.6,29.91,ESE,121,1.0,4.0,84,0.00,,FEW,0.00,0.00,VWS V14.01,2013-10-22 09:39:00,
2013-10-22 05:40:00,81.9,76.6,29.91,ESE,114,5.0,5.0,84,0.00,,FEW,0.00,0.00,VWS V14.01,2013-10-22 09:40:00,
2013-10-22 05:42:00,81.9,76.6,29.91,SE,145,5.0,5.0,84,0.00,,FEW,0.00,0.00,VWS V14.01,2013-10-22 09:42:00,
2013-10-22 05:43:00,81.9,76.6,29.91,SE,144,3.0,5.0,84,0.00,,FEW,0.00,0.00,VWS V14.01,2013-10-22 09:43:00,
2013-10-22 05:44:00,81.9,76.6,29.91,SE,139,2.0,3.0,84,0.00,,FEW,0.00,0.00,VWS V14.01,2013-10-22 09:44:00,
2013-10-22 05:45:00,81.9,76.6,29.91,ESE,123,5.0,5.0,84,0.00,,FEW,0.00,0.00,VWS V14.01,2013-10-22 09:45:00,
2013-10-22 05:47:00,81.9,76.6,29.91,SE,143,3.0,5.0,84,0.00,,FEW,0.00,0.00,VWS V14.01,2013-10-22 09:47:00,
2013-10-22 05:48:00,81.9,76.6,29.91,SSW,200,2.0,5.0,84,0.00,,FEW,0.00,0.00,VWS V14.01,2013-10-22 09:48:00,
2013-10-22 05:49:00,81.9,76.6,29.91,SSE,150,1.0,5.0,84,0.00,,FEW,0.00,0.00,VWS V14.01,2013-10-22 09:49:00,
2013-10-22 05:50:00,81.9,76.6,29.91,SE,144,2.0,5.0,84,0.00,,FEW,0.00,0.00,VWS V14.01,2013-10-22 09:50:00,
2013-10-22 05:53:00,81.9,76.6,29.91,SE,144,1.0,6.0,84,0.00,,FEW,0.00,0.00,VWS V14.01,2013-10-22 09:53:00,
2013-10-22 05:54:00,81.9,76.6,29.91,SSE,157,1.0,1.0,84,0.00,,FEW,0.00,0.00,VWS V14.01,2013-10-22 09:54:00,
2013-10-22 05:55:00,81.9,76.6,29.91,East,101,1.0,1.0,84,0.00,,FEW,0.00,0.00,VWS V14.01,2013-10-22 09:55:00,
2013-10-22 05:56:00,81.9,76.6,29.91,ESE,119,2.0,5.0,84,0.00,,FEW,0.00,0.00,VWS V14.01,2013-10-22 09:56:00,
2013-10-22 05:58:00,81.8,76.5,29.91,SE,133,4.0,7.0,84,0.00,,FEW,0.00,0.00,VWS V14.01,2013-10-22 09:58:00,
2013-10-22 06:00:00,81.8,76.5,29.91,ESE,119,2.0,7.0,84,0.00,,FEW,0.00,0.00,VWS V14.01,2013-10-22 10:00:00,
2013-10-22 06:01:00,81.8,76.5,29.91,SE,138,3.0,7.0,84,0.00,,FEW,0.00,0.00,VWS V14.01,2013-10-22 10:01:00,
2013-10-22 06:03:00,81.7,76.4,29.91,SE,134,2.0,7.0,84,0.00,,FEW,0.00,0.00,VWS V14.01,2013-10-22 10:03:00,
2013-10-22 06:05:00,81.7,76.4,29.91,ESE,115,2.0,3.0,84,0.00,,FEW,0.00,0.00,VWS V14.01,2013-10-22 10:05:00,
2013-10-22 06:06:00,81.7,76.4,29.91,ESE,121,3.0,3.0,84,0.00,,FEW,0.00,0.00,VWS V14.01,2013-10-22 10:06:00,
2013-10-22 06:08:00,81.7,76.4,29.91,SE,130,4.0,5.0,84,0.00,,FEW,0.00,0.00,VWS V14.01,2013-10-22 10:08:00,
2013-10-22 06:10:00,81.7,76.4,29.91,SE,142,3.0,5.0,84,0.00,,FEW,0.00,0.00,VWS V14.01,2013-10-22 10:10:00,
2013-10-22 06:11:00,81.7,76.4,29.91,SSE,155,6.0,6.0,84,0.00,,FEW,0.00,0.00,VWS V14.01,2013-10-22 10:11:00,
2013-10-22 06:13:00,81.7,76.4,29.91,SSE,157,3.0,6.0,84,0.00,,FEW,0.00,0.00,VWS V14.01,2013-10-22 10:13:00,
2013-10-22 06:15:00,81.8,76.5,29.91,SE,127,3.0,4.0,84,0.00,,FEW,0.00,0.00,VWS V14.01,2013-10-22 10:15:00,
2013-10-22 06:16:00,81.8,76.5,29.91,SE,139,3.0,5.0,84,0.00,,FEW,0.00,0.00,VWS V14.01,2013-10-22 10:16:00,
2013-10-22 06:17:00,81.8,76.5,29.91,SE,131,4.0,5.0,84,0.00,,FEW,0.00,0.00,VWS V14.01,2013-10-22 10:17:00,
2013-10-22 06:18:00,81.8,76.5,29.91,SSE,147,2.0,5.0,84,0.00,,FEW,0.00,0.00,VWS V14.01,2013-10-22 10:18:00,
2013-10-22 06:19:00,81.8,76.5,29.91,SE,134,2.0,5.0,84,0.00,,FEW,0.00,0.00,VWS V14.01,2013-10-22 10:19:00,
2013-10-22 06:20:00,81.8,76.5,29.91,SE,142,3.0,5.0,84,0.00,,FEW,0.00,0.00,VWS V14.01,2013-10-22 10:20:00,
2013-10-22 06:21:00,81.8,76.5,29.91,SE,136,4.0,5.0,84,0.00,,FEW,0.00,0.00,VWS V14.01,2013-10-22 10:21:00,
2013-10-22 06:22:00,81.8,76.5,29.91,SE,129,2.0,6.0,84,0.00,,FEW,0.00,0.00,VWS V14.01,2013-10-22 10:22:00,
2013-10-22 06:23:00,81.8,76.5,29.91,ESE,123,1.0,6.0,84,0.00,,FEW,0.00,0.00,VWS V14.01,2013-10-22 10:23:00,
2013-10-22 06:24:00,81.8,76.5,29.91,SE,143,2.0,4.0,84,0.00,,FEW,0.00,0.00,VWS V14.01,2013-10-22 10:24:00,
2013-10-22 06:25:00,81.8,76.5,29.91,SE,126,4.0,5.0,84,0.00,,FEW,0.00,0.00,VWS V14.01,2013-10-22 10:25:00,
2013-10-22 06:27:00,81.7,76.4,29.91,SE,133,5.0,6.0,84,0.00,,FEW,0.00,0.00,VWS V14.01,2013-10-22 10:27:00,
2013-10-22 06:28:00,81.7,76.4,29.91,SSE,166,5.0,6.0,84,0.00,,FEW,0.00,0.00,VWS V14.01,2013-10-22 10:28:00,
2013-10-22 06:29:00,81.7,76.4,29.91,SE,137,7.0,7.0,84,0.00,,FEW,0.00,0.00,VWS V14.01,2013-10-22 10:29:00,
2013-10-22 06:30:00,81.7,76.4,29.91,SSE,150,5.0,7.0,84,0.00,,FEW,0.00,0.00,VWS V14.01,2013-10-22 10:30:00,
2013-10-22 06:32:00,81.8,76.5,29.91,SE,135,7.0,7.0,84,0.00,,FEW,0.00,0.00,VWS V14.01,2013-10-22 10:32:00,
2013-10-22 06:33:00,81.8,76.5,29.91,SSE,155,4.0,7.0,84,0.00,,FEW,0.00,0.00,VWS V14.01,2013-10-22 10:33:00,
2013-10-22 06:35:00,81.7,76.0,29.91,SE,132,1.0,6.0,83,0.00,,FEW,0.00,0.00,VWS V14.01,2013-10-22 10:35:00,
2013-10-22 06:37:00,81.7,76.0,29.91,ESE,111,7.0,8.0,83,0.00,,FEW,0.00,0.00,VWS V14.01,2013-10-22 10:37:00,
2013-10-22 06:38:00,81.7,76.0,29.91,SE,126,3.0,8.0,83,0.00,,FEW,0.00,0.00,VWS V14.01,2013-10-22 10:38:00,
2013-10-22 06:40:00,81.8,76.1,29.91,SE,139,8.0,8.0,83,0.00,,FEW,0.00,0.00,VWS V14.01,2013-10-22 10:40:00,
2013-10-22 06:43:00,81.8,76.1,29.91,SE,126,4.0,8.0,83,0.00,,FEW,0.00,0.00,VWS V14.01,2013-10-22 10:43:00,
2013-10-22 06:44:00,81.8,76.1,29.91,ESE,102,4.0,8.0,83,0.00,,FEW,0.00,0.00,VWS V14.01,2013-10-22 10:44:00,
2013-10-22 06:45:00,81.8,76.1,29.91,East,91,2.0,8.0,83,0.00,,FEW,0.00,0.00,VWS V14.01,2013-10-22 10:45:00,
2013-10-22 06:46:00,81.8,76.1,29.91,ESE,121,3.0,8.0,83,0.00,,FEW,0.00,0.00,VWS V14.01,2013-10-22 10:46:00,
2013-10-22 06:48:00,81.8,76.1,29.91,SE,132,3.0,8.0,83,0.00,,FEW,0.00,0.00,VWS V14.01,2013-10-22 10:48:00,
2013-10-22 06:49:00,81.8,76.1,29.90,ESE,119,3.0,8.0,83,0.00,,FEW,0.00,0.00,VWS V14.01,2013-10-22 10:49:00,
2013-10-22 06:50:00,81.8,76.1,29.90,SE,137,3.0,8.0,83,0.00,,FEW,0.00,0.00,VWS V14.01,2013-10-22 10:50:00,
2013-10-22 06:51:00,81.8,76.1,29.90,ESE,107,7.0,8.0,83,0.00,,FEW,0.00,0.00,VWS V14.01,2013-10-22 10:51:00,
2013-10-22 06:53:00,81.7,76.0,29.90,SE,138,4.0,8.0,83,0.00,,FEW,0.00,0.00,VWS V14.01,2013-10-22 10:53:00,
2013-10-22 06:54:00,81.8,76.1,29.90,SE,134,7.0,7.0,83,0.00,,FEW,0.00,0.00,VWS V14.01,2013-10-22 10:54:00,
2013-10-22 06:55:00,81.8,76.1,29.90,SE,135,5.0,7.0,83,0.00,,FEW,0.00,0.00,VWS V14.01,2013-10-22 10:55:00,
2013-10-22 06:56:00,81.8,76.1,29.90,SE,139,3.0,7.0,83,0.00,,FEW,0.00,0.00,VWS V14.01,2013-10-22 10:56:00,
2013-10-22 06:58:00,81.7,76.0,29.90,SE,144,6.0,8.0,83,0.00,,FEW,0.00,0.00,VWS V14.01,2013-10-22 10:58:00,
2013-10-22 06:59:00,81.7,76.0,29.90,ESE,117,4.0,10.0,83,0.00,,FEW,0.00,0.00,VWS V14.01,2013-10-22 10:59:00,
2013-10-22 07:00:00,81.7,76.0,29.90,SE,133,5.0,10.0,83,0.00,,FEW,0.00,0.00,VWS V14.01,2013-10-22 11:00:00,
2013-10-22 07:01:00,81.8,76.1,29.90,SSE,149,3.0,10.0,83,0.00,,FEW,0.00,0.00,VWS V14.01,2013-10-22 11:01:00,
2013-10-22 07:03:00,81.8,76.1,29.90,SE,134,6.0,10.0,83,0.00,,FEW,0.00,0.00,VWS V14.01,2013-10-22 11:03:00,
2013-10-22 07:04:00,81.8,76.1,29.91,ENE,73,4.0,10.0,83,0.00,,FEW,0.00,0.00,VWS V14.01,2013-10-22 11:04:00,
2013-10-22 07:06:00,81.8,76.1,29.91,SSE,156,4.0,8.0,83,0.00,,FEW,0.00,0.00,VWS V14.01,2013-10-22 11:06:00,
2013-10-22 07:07:00,81.8,76.1,29.91,East,99,2.0,8.0,83,0.00,,FEW,0.00,0.00,VWS V14.01,2013-10-22 11:07:00,
2013-10-22 07:08:00,81.9,76.2,29.91,ESE,118,4.0,8.0,83,0.00,,FEW,0.00,0.00,VWS V14.01,2013-10-22 11:08:00,
2013-10-22 07:09:00,81.9,76.2,29.91,SE,131,1.0,8.0,83,0.00,,FEW,0.00,0.00,VWS V14.01,2013-10-22 11:09:00,
2013-10-22 07:11:00,81.9,76.2,29.91,SE,127,2.0,8.0,83,0.00,,FEW,0.00,0.00,VWS V14.01,2013-10-22 11:11:00,
2013-10-22 07:12:00,81.9,76.2,29.91,SSE,148,2.0,8.0,83,0.00,,FEW,0.00,0.00,VWS V14.01,2013-10-22 11:12:00,
2013-10-22 07:13:00,81.9,76.2,29.91,ESE,123,2.0,8.0,83,0.00,,FEW,0.00,0.00,VWS V14.01,2013-10-22 11:13:00,
2013-10-22 07:14:00,81.9,76.2,29.91,SSE,163,1.0,8.0,83,0.00,,FEW,0.00,0.00,VWS V14.01,2013-10-22 11:14:00,
2013-10-22 07:16:00,81.9,76.2,29.91,SE,142,0.0,4.0,83,0.00,,FEW,0.00,0.00,VWS V14.01,2013-10-22 11:16:00,
2013-10-22 07:17:00,81.9,76.2,29.91,SE,143,1.0,4.0,83,0.00,,FEW,0.00,0.00,VWS V14.01,2013-10-22 11:17:00,
2013-10-22 07:18:00,81.9,76.2,29.91,SE,140,3.0,4.0,83,0.00,,FEW,0.00,0.00,VWS V14.01,2013-10-22 11:18:00,
2013-10-22 07:19:00,81.9,76.2,29.91,SE,136,2.0,4.0,83,0.00,,FEW,0.00,0.00,VWS V14.01,2013-10-22 11:19:00,
2013-10-22 07:22:00,81.9,76.2,29.91,SE,140,5.0,5.0,83,0.00,,FEW,0.00,0.00,VWS V14.01,2013-10-22 11:22:00,
2013-10-22 07:23:00,81.9,76.2,29.91,SE,142,5.0,5.0,83,0.00,,FEW,0.00,0.00,VWS V14.01,2013-10-22 11:23:00,
2013-10-22 07:24:00,81.9,76.2,29.91,SE,126,6.0,7.0,83,0.00,,FEW,0.00,0.00,VWS V14.01,2013-10-22 11:24:00,
2013-10-22 07:25:00,81.9,76.2,29.91,SE,130,4.0,7.0,83,0.00,,FEW,0.00,0.00,VWS V14.01,2013-10-22 11:25:00,
2013-10-22 07:27:00,81.9,76.2,29.91,SE,135,3.0,7.0,83,0.00,,FEW,0.00,5.00,VWS V14.01,2013-10-22 11:27:00,
2013-10-22 07:28:00,81.8,76.1,29.91,ESE,121,5.0,7.0,83,0.00,,FEW,0.00,5.00,VWS V14.01,2013-10-22 11:28:00,
2013-10-22 07:29:00,81.9,76.2,29.91,SE,139,7.0,7.0,83,0.00,,FEW,0.00,5.00,VWS V14.01,2013-10-22 11:29:00,
2013-10-22 07:30:00,81.9,76.2,29.91,SE,128,4.0,7.0,83,0.00,,FEW,0.00,5.00,VWS V14.01,2013-10-22 11:30:00,
2013-10-22 07:32:00,81.8,76.1,29.91,ESE,109,0.0,7.0,83,0.00,,FEW,0.00,7.00,VWS V14.01,2013-10-22 11:32:00,
2013-10-22 07:33:00,81.8,76.1,29.91,SSE,148,3.0,7.0,83,0.00,,FEW,0.00,7.00,VWS V14.01,2013-10-22 11:33:00,
2013-10-22 07:34:00,81.9,76.2,29.91,SE,142,1.0,7.0,83,0.00,,FEW,0.00,9.00,VWS V14.01,2013-10-22 11:34:00,
2013-10-22 07:35:00,81.9,76.2,29.91,SE,141,2.0,7.0,83,0.00,,FEW,0.00,9.00,VWS V14.01,2013-10-22 11:35:00,
2013-10-22 07:37:00,81.9,76.2,29.91,SE,139,3.0,7.0,83,0.00,,FEW,0.00,14.00,VWS V14.01,2013-10-22 11:37:00,
2013-10-22 07:38:00,81.9,76.2,29.91,SE,136,3.0,7.0,83,0.00,,FEW,0.00,16.00,VWS V14.01,2013-10-22 11:38:00,
2013-10-22 07:39:00,81.9,76.2,29.91,SSE,155,4.0,7.0,83,0.00,,FEW,0.00,16.00,VWS V14.01,2013-10-22 11:39:00,
2013-10-22 07:40:00,81.9,76.2,29.91,SE,143,4.0,8.0,83,0.00,,FEW,0.00,16.00,VWS V14.01,2013-10-22 11:40:00,
2013-10-22 07:42:00,81.9,76.2,29.91,SE,128,7.0,8.0,83,0.00,,FEW,0.00,19.00,VWS V14.01,2013-10-22 11:42:00,
2013-10-22 07:44:00,81.9,76.2,29.91,South,180,3.0,8.0,83,0.00,,FEW,0.00,21.00,VWS V14.01,2013-10-22 11:44:00,
2013-10-22 07:45:00,81.9,76.2,29.91,SE,146,2.0,3.0,83,0.00,,FEW,0.00,28.00,VWS V14.01,2013-10-22 11:45:00,
2013-10-22 07:47:00,81.9,76.2,29.91,SE,137,4.0,7.0,83,0.00,,FEW,0.00,39.00,VWS V14.01,2013-10-22 11:47:00,
2013-10-22 07:49:00,81.9,76.2,29.91,ESE,121,2.0,7.0,83,0.00,,FEW,0.00,39.00,VWS V14.01,2013-10-22 11:49:00,
2013-10-22 07:50:00,82.0,76.3,29.91,SSE,163,3.0,7.0,83,0.00,,FEW,0.00,39.00,VWS V14.01,2013-10-22 11:50:00,
2013-10-22 07:51:00,82.0,76.3,29.91,SSE,163,4.0,7.0,83,0.00,,FEW,0.00,40.00,VWS V14.01,2013-10-22 11:51:00,
2013-10-22 07:52:00,82.1,76.4,29.91,SSE,149,2.0,7.0,83,0.00,,FEW,0.00,46.00,VWS V14.01,2013-10-22 11:52:00,
2013-10-22 07:54:00,82.1,76.4,29.91,ESE,112,3.0,7.0,83,0.00,,FEW,0.00,49.00,VWS V14.01,2013-10-22 11:54:00,
2013-10-22 07:55:00,82.1,76.4,29.91,SSE,148,1.0,4.0,83,0.00,,FEW,0.00,53.00,VWS V14.01,2013-10-22 11:55:00,
2013-10-22 07:56:00,82.2,76.5,29.91,SE,132,1.0,4.0,83,0.00,,FEW,0.00,54.00,VWS V14.01,2013-10-22 11:56:00,
2013-10-22 07:57:00,82.2,76.9,29.91,ESE,113,3.0,4.0,84,0.00,,FEW,0.00,60.00,VWS V14.01,2013-10-22 11:57:00,
2013-10-22 07:59:00,82.2,76.5,29.91,SE,146,5.0,7.0,83,0.00,,FEW,0.00,63.00,VWS V14.01,2013-10-22 11:59:00,
2013-10-22 08:00:00,82.2,76.5,29.91,ESE,111,2.0,7.0,83,0.00,,FEW,0.00,69.00,VWS V14.01,2013-10-22 12:00:00,
2013-10-22 08:01:00,82.2,76.5,29.91,ESE,109,0.0,7.0,83,0.00,,FEW,0.00,70.00,VWS V14.01,2013-10-22 12:01:00,
2013-10-22 08:03:00,82.2,76.5,29.91,SE,145,0.0,7.0,83,0.00,,FEW,0.00,67.00,VWS V14.01,2013-10-22 12:03:00,
2013-10-22 08:04:00,82.3,76.6,29.91,SSE,159,3.0,3.0,83,0.00,,FEW,0.00,76.00,VWS V14.01,2013-10-22 12:04:00,
2013-10-22 08:05:00,82.3,76.6,29.91,SSE,155,3.0,5.0,83,0.00,,FEW,0.00,74.00,VWS V14.01,2013-10-22 12:05:00,
2013-10-22 08:06:00,82.3,76.6,29.91,SE,140,5.0,5.0,83,0.00,,FEW,0.00,69.00,VWS V14.01,2013-10-22 12:06:00,
2013-10-22 08:08:00,82.3,76.6,29.91,ESE,105,1.0,5.0,83,0.00,,FEW,0.00,63.00,VWS V14.01,2013-10-22 12:08:00,
2013-10-22 08:09:00,82.4,76.7,29.91,SE,134,1.0,5.0,83,0.00,,FEW,0.00,65.00,VWS V14.01,2013-10-22 12:09:00,
2013-10-22 08:10:00,82.4,76.7,29.91,SSE,157,2.0,5.0,83,0.00,,FEW,0.00,65.00,VWS V14.01,2013-10-22 12:10:00,
2013-10-22 08:12:00,82.5,76.8,29.91,SSE,148,3.0,5.0,83,0.00,,FEW,0.00,79.00,VWS V14.01,2013-10-22 12:12:00,
2013-10-22 08:13:00,82.5,76.8,29.91,ESE,111,5.0,5.0,83,0.00,,FEW,0.00,77.00,VWS V14.01,2013-10-22 12:13:00,
2013-10-22 08:15:00,82.5,76.4,29.91,SSE,155,2.0,4.0,82,0.00,,FEW,0.00,86.00,VWS V14.01,2013-10-22 12:15:00,
2013-10-22 08:17:00,82.6,76.6,29.91,SE,139,5.0,5.0,82,0.00,,FEW,0.00,72.00,VWS V14.01,2013-10-22 12:17:00,
2013-10-22 08:18:00,82.6,76.2,29.91,ESE,116,1.0,6.0,81,0.00,,FEW,0.00,60.00,VWS V14.01,2013-10-22 12:18:00,
2013-10-22 08:20:00,82.7,76.3,29.91,SE,134,2.0,6.0,81,0.00,,FEW,0.00,67.00,VWS V14.01,2013-10-22 12:20:00,
2013-10-22 08:21:00,82.8,76.4,29.91,SSE,147,3.0,6.0,81,0.00,,FEW,0.00,83.00,VWS V14.01,2013-10-22 12:21:00,
2013-10-22 08:22:00,82.9,76.5,29.91,SE,124,3.0,6.0,81,0.00,,FEW,0.00,90.00,VWS V14.01,2013-10-22 12:22:00,
2013-10-22 08:23:00,82.9,76.5,29.91,ESE,117,3.0,6.0,81,0.00,,FEW,0.00,109.00,VWS V14.01,2013-10-22 12:23:00,
2013-10-22 08:25:00,82.9,76.5,29.91,SE,136,2.0,3.0,81,0.00,,FEW,0.00,156.00,VWS V14.01,2013-10-22 12:25:00,
2013-10-22 08:26:00,83.0,76.6,29.91,SSE,161,2.0,5.0,81,0.00,,FEW,0.00,174.00,VWS V14.01,2013-10-22 12:26:00,
2013-10-22 08:28:00,83.0,76.6,29.91,ESE,123,4.0,5.0,81,0.00,,FEW,0.00,192.00,VWS V14.01,2013-10-22 12:28:00,
2013-10-22 08:30:00,83.2,76.4,29.91,SE,126,1.0,5.0,80,0.00,,FEW,0.00,204.00,VWS V14.01,2013-10-22 12:30:00,
2013-10-22 08:31:00,83.2,76.8,29.91,SE,126,1.0,5.0,81,0.00,,FEW,0.00,211.00,VWS V14.01,2013-10-22 12:31:00,
2013-10-22 08:32:00,83.2,76.8,29.91,SSE,148,4.0,5.0,81,0.00,,FEW,0.00,220.00,VWS V14.01,2013-10-22 12:32:00,
2013-10-22 08:33:00,83.3,76.9,29.91,SE,137,3.0,5.0,81,0.00,,FEW,0.00,227.00,VWS V14.01,2013-10-22 12:33:00,
2013-10-22 08:35:00,83.4,76.6,29.91,SSE,165,4.0,5.0,80,0.00,,FEW,0.00,93.00,VWS V14.01,2013-10-22 12:35:00,
2013-10-22 08:36:00,83.4,76.6,29.91,SE,146,2.0,5.0,80,0.00,,FEW,0.00,93.00,VWS V14.01,2013-10-22 12:36:00,
2013-10-22 08:37:00,83.5,77.1,29.91,SSE,150,0.0,5.0,81,0.00,,FEW,0.00,141.00,VWS V14.01,2013-10-22 12:37:00,
2013-10-22 08:38:00,83.5,77.1,29.91,SSE,159,5.0,6.0,81,0.00,,FEW,0.00,95.00,VWS V14.01,2013-10-22 12:38:00,
2013-10-22 08:40:00,83.5,76.7,29.91,SE,136,3.0,6.0,80,0.00,,FEW,0.00,174.00,VWS V14.01,2013-10-22 12:40:00,
2013-10-22 08:41:00,83.4,76.6,29.91,SE,144,2.0,6.0,80,0.00,,FEW,0.00,248.00,VWS V14.01,2013-10-22 12:41:00,
2013-10-22 08:42:00,83.4,76.6,29.91,SE,145,4.0,6.0,80,0.00,,FEW,0.00,253.00,VWS V14.01,2013-10-22 12:42:00,
2013-10-22 08:43:00,83.4,76.6,29.91,South,170,3.0,6.0,80,0.00,,FEW,0.00,253.00,VWS V14.01,2013-10-22 12:43:00,
2013-10-22 08:45:00,83.5,76.7,29.91,ESE,115,4.0,5.0,80,0.00,,FEW,0.00,272.00,VWS V14.01,2013-10-22 12:45:00,
2013-10-22 08:46:00,83.6,76.8,29.91,SE,136,3.0,5.0,80,0.00,,FEW,0.00,272.00,VWS V14.01,2013-10-22 12:46:00,
2013-10-22 08:47:00,83.6,76.8,29.91,SSE,152,5.0,5.0,80,0.00,,FEW,0.00,83.00,VWS V14.01,2013-10-22 12:47:00,
2013-10-22 08:48:00,83.6,76.8,29.92,South,174,2.0,5.0,80,0.00,,FEW,0.00,81.00,VWS V14.01,2013-10-22 12:48:00,
2013-10-22 08:51:00,83.6,76.8,29.92,SE,133,2.0,5.0,80,0.00,,FEW,0.00,148.00,VWS V14.01,2013-10-22 12:51:00,
2013-10-22 08:52:00,83.6,77.2,29.92,SSE,163,6.0,6.0,81,0.00,,FEW,0.00,199.00,VWS V14.01,2013-10-22 12:52:00,
2013-10-22 08:53:00,83.6,76.8,29.92,SSE,167,2.0,6.0,80,0.00,,FEW,0.00,116.00,VWS V14.01,2013-10-22 12:53:00,
2013-10-22 08:56:00,83.6,76.8,29.92,ESE,118,2.0,4.0,80,0.00,,FEW,0.00,309.00,VWS V14.01,2013-10-22 12:56:00,
2013-10-22 08:57:00,83.7,76.9,29.92,SE,130,3.0,5.0,80,0.00,,FEW,0.00,320.00,VWS V14.01,2013-10-22 12:57:00,
2013-10-22 08:58:00,83.7,76.9,29.92,SSE,148,3.0,5.0,80,0.00,,FEW,0.00,320.00,VWS V14.01,2013-10-22 12:58:00,
2013-10-22 08:59:00,83.7,76.5,29.92,South,169,1.0,6.0,79,0.00,,FEW,0.00,322.00,VWS V14.01,2013-10-22 12:59:00,
2013-10-22 09:01:00,83.9,77.1,29.92,South,171,2.0,6.0,80,0.00,,FEW,0.00,336.00,VWS V14.01,2013-10-22 13:01:00,
2013-10-22 09:03:00,84.1,77.3,29.92,SSE,155,1.0,6.0,80,0.00,,FEW,0.00,332.00,VWS V14.01,2013-10-22 13:03:00,
2013-10-22 09:05:00,83.9,76.7,29.93,SSE,165,3.0,3.0,79,0.00,,FEW,0.00,176.00,VWS V14.01,2013-10-22 13:05:00,
2013-10-22 09:06:00,83.9,76.7,29.93,SSE,166,2.0,5.0,79,0.00,,FEW,0.00,176.00,VWS V14.01,2013-10-22 13:06:00,
2013-10-22 09:08:00,83.8,76.6,29.93,SE,125,4.0,5.0,79,0.00,,FEW,0.00,169.00,VWS V14.01,2013-10-22 13:08:00,
2013-10-22 09:09:00,83.8,76.6,29.93,SE,136,2.0,5.0,79,0.00,,FEW,0.00,169.00,VWS V14.01,2013-10-22 13:09:00,
2013-10-22 09:11:00,83.7,76.5,29.93,SE,135,2.0,5.0,79,0.00,,FEW,0.00,364.00,VWS V14.01,2013-10-22 13:11:00,
2013-10-22 09:13:00,84.0,76.8,29.93,SSE,154,3.0,7.0,79,0.00,,FEW,0.00,355.00,VWS V14.01,2013-10-22 13:13:00,
2013-10-22 09:14:00,84.0,76.8,29.93,SSW,194,4.0,7.0,79,0.00,,FEW,0.00,343.00,VWS V14.01,2013-10-22 13:14:00,
2013-10-22 09:16:00,84.1,76.9,29.93,SE,146,1.0,4.0,79,0.00,,FEW,0.00,401.00,VWS V14.01,2013-10-22 13:16:00,
2013-10-22 09:19:00,84.4,76.8,29.93,South,182,3.0,6.0,78,0.00,,FEW,0.00,401.00,VWS V14.01,2013-10-22 13:19:00,
2013-10-22 09:20:00,84.5,76.9,29.93,SE,134,2.0,6.0,78,0.00,,FEW,0.00,410.00,VWS V14.01,2013-10-22 13:20:00,
2013-10-22 09:21:00,84.5,76.9,29.93,SE,134,4.0,6.0,78,0.00,,FEW,0.00,413.00,VWS V14.01,2013-10-22 13:21:00,
2013-10-22 09:22:00,84.5,76.9,29.93,SE,124,4.0,6.0,78,0.00,,FEW,0.00,411.00,VWS V14.01,2013-10-22 13:22:00,
2013-10-22 09:24:00,84.5,76.5,29.93,ESE,118,2.0,6.0,77,0.00,,FEW,0.00,364.00,VWS V14.01,2013-10-22 13:24:00,
2013-10-22 09:25:00,84.5,76.5,29.93,SE,133,5.0,6.0,77,0.00,,FEW,0.00,364.00,VWS V14.01,2013-10-22 13:25:00,
2013-10-22 09:26:00,84.3,76.7,29.93,SE,144,4.0,6.0,78,0.00,,FEW,0.00,422.00,VWS V14.01,2013-10-22 13:26:00,
2013-10-22 09:27:00,84.3,76.7,29.93,SSE,154,3.0,6.0,78,0.00,,FEW,0.00,422.00,VWS V14.01,2013-10-22 13:27:00,
2013-10-22 09:29:00,84.3,76.3,29.93,SE,145,4.0,10.0,77,0.00,,FEW,0.00,357.00,VWS V14.01,2013-10-22 13:29:00,
2013-10-22 09:30:00,84.3,76.3,29.93,ESE,103,7.0,10.0,77,0.00,,FEW,0.00,357.00,VWS V14.01,2013-10-22 13:30:00,
2013-10-22 09:31:00,84.4,76.4,29.93,SSE,148,2.0,10.0,77,0.00,,FEW,0.00,230.00,VWS V14.01,2013-10-22 13:31:00,
2013-10-22 09:32:00,84.4,76.8,29.93,SE,128,4.0,10.0,78,0.00,,FEW,0.00,230.00,VWS V14.01,2013-10-22 13:32:00,
2013-10-22 09:34:00,84.4,76.8,29.93,SSE,151,1.0,5.0,78,0.00,,FEW,0.00,220.00,VWS V14.01,2013-10-22 13:34:00,
2013-10-22 09:35:00,84.4,76.8,29.93,ESE,109,2.0,5.0,78,0.00,,FEW,0.00,220.00,VWS V14.01,2013-10-22 13:35:00,
2013-10-22 09:36:00,84.5,76.5,29.93,East,101,3.0,7.0,77,0.00,,FEW,0.00,434.00,VWS V14.01,2013-10-22 13:36:00,
2013-10-22 09:37:00,84.5,76.5,29.93,SE,131,2.0,7.0,77,0.00,,FEW,0.00,399.00,VWS V14.01,2013-10-22 13:37:00,
2013-10-22 09:40:00,84.6,76.6,29.93,ESE,111,4.0,8.0,77,0.00,,FEW,0.00,441.00,VWS V14.01,2013-10-22 13:40:00,
2013-10-22 09:41:00,84.6,77.0,29.93,SE,132,1.0,8.0,78,0.00,,FEW,0.00,434.00,VWS V14.01,2013-10-22 13:41:00,
2013-10-22 09:42:00,84.7,77.1,29.93,SE,142,2.0,8.0,78,0.00,,FEW,0.00,434.00,VWS V14.01,2013-10-22 13:42:00,
2013-10-22 09:45:00,84.8,77.2,29.93,ESE,119,4.0,5.0,78,0.00,,FEW,0.00,355.00,VWS V14.01,2013-10-22 13:45:00,
2013-10-22 09:47:00,84.9,77.3,29.93,ESE,117,7.0,7.0,78,0.00,,FEW,0.00,455.00,VWS V14.01,2013-10-22 13:47:00,
2013-10-22 09:50:00,84.9,77.3,29.93,SE,144,8.0,8.0,78,0.00,,FEW,0.00,461.00,VWS V14.01,2013-10-22 13:50:00,
2013-10-22 09:51:00,84.9,76.9,29.93,ESE,123,3.0,8.0,77,0.00,,FEW,0.00,450.00,VWS V14.01,2013-10-22 13:51:00,
2013-10-22 09:52:00,85.0,77.0,29.93,SE,125,6.0,8.0,77,0.00,,FEW,0.00,455.00,VWS V14.01,2013-10-22 13:52:00,
2013-10-22 09:53:00,84.9,76.9,29.93,SSE,152,6.0,8.0,77,0.00,,FEW,0.00,469.00,VWS V14.01,2013-10-22 13:53:00,
2013-10-22 09:55:00,85.0,77.0,29.93,ESE,123,4.0,8.0,77,0.00,,FEW,0.00,462.00,VWS V14.01,2013-10-22 13:55:00,
2013-10-22 09:56:00,85.0,77.0,29.93,South,170,5.0,8.0,77,0.00,,FEW,0.00,462.00,VWS V14.01,2013-10-22 13:56:00,
2013-10-22 09:57:00,85.0,77.0,29.93,South,169,2.0,8.0,77,0.00,,FEW,0.00,459.00,VWS V14.01,2013-10-22 13:57:00,
2013-10-22 09:58:00,84.9,76.9,29.93,ESE,114,4.0,9.0,77,0.00,,FEW,0.00,462.00,VWS V14.01,2013-10-22 13:58:00,
2013-10-22 10:00:00,85.0,77.0,29.93,SE,135,3.0,9.0,77,0.00,,FEW,0.00,466.00,VWS V14.01,2013-10-22 14:00:00,
2013-10-22 10:01:00,85.0,77.0,29.93,SE,138,4.0,9.0,77,0.00,,FEW,0.00,469.00,VWS V14.01,2013-10-22 14:01:00,
2013-10-22 10:02:00,85.1,77.1,29.93,SE,146,3.0,9.0,77,0.00,,FEW,0.00,471.00,VWS V14.01,2013-10-22 14:02:00,
2013-10-22 10:03:00,85.2,77.2,29.93,SSE,161,4.0,9.0,77,0.00,,FEW,0.00,471.00,VWS V14.01,2013-10-22 14:03:00,
2013-10-22 10:06:00,85.2,77.2,29.93,East,98,3.0,6.0,77,0.00,,FEW,0.00,482.00,VWS V14.01,2013-10-22 14:06:00,
2013-10-22 10:07:00,85.2,77.2,29.93,SSE,164,5.0,6.0,77,0.00,,FEW,0.00,483.00,VWS V14.01,2013-10-22 14:07:00,
2013-10-22 10:08:00,85.2,77.2,29.93,South,170,4.0,6.0,77,0.00,,FEW,0.00,489.00,VWS V14.01,2013-10-22 14:08:00,
2013-10-22 10:11:00,85.3,77.3,29.93,SSE,148,5.0,7.0,77,0.00,,FEW,0.00,494.00,VWS V14.01,2013-10-22 14:11:00,
2013-10-22 10:12:00,85.3,77.3,29.93,SE,139,3.0,7.0,77,0.00,,FEW,0.00,494.00,VWS V14.01,2013-10-22 14:12:00,
2013-10-22 10:13:00,85.2,77.2,29.93,South,180,5.0,7.0,77,0.00,,FEW,0.00,499.00,VWS V14.01,2013-10-22 14:13:00,
2013-10-22 10:16:00,85.2,77.2,29.93,SSE,168,3.0,5.0,77,0.00,,FEW,0.00,512.00,VWS V14.01,2013-10-22 14:16:00,
2013-10-22 10:17:00,85.2,77.2,29.93,SE,128,7.0,7.0,77,0.00,,FEW,0.00,538.00,VWS V14.01,2013-10-22 14:17:00,
2013-10-22 10:18:00,85.2,77.2,29.93,SSE,158,2.0,7.0,77,0.00,,FEW,0.00,538.00,VWS V14.01,2013-10-22 14:18:00,
2013-10-22 10:19:00,85.3,77.3,29.93,South,175,2.0,7.0,77,0.00,,FEW,0.00,533.00,VWS V14.01,2013-10-22 14:19:00,
2013-10-22 10:21:00,85.6,77.6,29.93,SSE,156,3.0,8.0,77,0.00,,FEW,0.00,531.00,VWS V14.01,2013-10-22 14:21:00,
2013-10-22 10:22:00,85.6,77.6,29.93,SSE,163,3.0,8.0,77,0.00,,FEW,0.00,531.00,VWS V14.01,2013-10-22 14:22:00,
2013-10-22 10:23:00,85.6,77.6,29.93,South,182,5.0,8.0,77,0.00,,FEW,0.00,533.00,VWS V14.01,2013-10-22 14:23:00,
2013-10-22 10:24:00,85.6,77.6,29.93,SE,125,4.0,8.0,77,0.00,,FEW,0.00,534.00,VWS V14.01,2013-10-22 14:24:00,
2013-10-22 10:26:00,85.6,77.2,29.93,SSE,149,1.0,6.0,76,0.00,,FEW,0.00,538.00,VWS V14.01,2013-10-22 14:26:00,
2013-10-22 10:27:00,85.7,77.3,29.93,South,179,1.0,6.0,76,0.00,,FEW,0.00,540.00,VWS V14.01,2013-10-22 14:27:00,
2013-10-22 10:28:00,85.7,77.3,29.93,South,178,2.0,6.0,76,0.00,,FEW,0.00,547.00,VWS V14.01,2013-10-22 14:28:00,
2013-10-22 10:29:00,85.9,77.5,29.93,SSE,159,5.0,6.0,76,0.00,,FEW,0.00,548.00,VWS V14.01,2013-10-22 14:29:00,
2013-10-22 10:31:00,85.9,77.9,29.93,SSE,160,0.0,6.0,77,0.00,,FEW,0.00,554.00,VWS V14.01,2013-10-22 14:31:00,
2013-10-22 10:32:00,86.0,77.9,29.93,South,188,5.0,6.0,77,0.00,,FEW,0.00,552.00,VWS V14.01,2013-10-22 14:32:00,
2013-10-22 10:33:00,86.0,77.9,29.93,South,190,4.0,6.0,77,0.00,,FEW,0.00,555.00,VWS V14.01,2013-10-22 14:33:00,
2013-10-22 10:34:00,86.0,77.6,29.93,South,172,3.0,4.0,76,0.00,,FEW,0.00,559.00,VWS V14.01,2013-10-22 14:34:00,
2013-10-22 10:36:00,86.1,77.7,29.93,SE,144,2.0,6.0,76,0.00,,FEW,0.00,585.00,VWS V14.01,2013-10-22 14:36:00,
2013-10-22 10:37:00,86.2,78.2,29.93,South,181,2.0,6.0,77,0.00,,FEW,0.00,520.00,VWS V14.01,2013-10-22 14:37:00,
2013-10-22 10:38:00,86.2,77.8,29.93,South,175,2.0,6.0,76,0.00,,FEW,0.00,587.00,VWS V14.01,2013-10-22 14:38:00,
2013-10-22 10:39:00,86.2,77.8,29.93,SE,142,4.0,6.0,76,0.00,,FEW,0.00,587.00,VWS V14.01,2013-10-22 14:39:00,
2013-10-22 10:41:00,86.3,78.2,29.93,South,178,2.0,6.0,77,0.00,,FEW,0.00,585.00,VWS V14.01,2013-10-22 14:41:00,
2013-10-22 10:42:00,86.2,77.8,29.93,SSE,160,3.0,6.0,76,0.00,,FEW,0.00,589.00,VWS V14.01,2013-10-22 14:42:00,
2013-10-22 10:43:00,86.2,77.8,29.93,SSE,166,3.0,6.0,76,0.00,,FEW,0.00,592.00,VWS V14.01,2013-10-22 14:43:00,
2013-10-22 10:44:00,86.1,77.7,29.93,SE,143,4.0,6.0,76,0.00,,FEW,0.00,592.00,VWS V14.01,2013-10-22 14:44:00,
2013-10-22 10:46:00,86.3,78.2,29.93,SE,146,3.0,5.0,77,0.00,,FEW,0.00,603.00,VWS V14.01,2013-10-22 14:46:00,
2013-10-22 10:47:00,86.3,77.8,29.93,SE,137,2.0,5.0,76,0.00,,FEW,0.00,613.00,VWS V14.01,2013-10-22 14:47:00,
2013-10-22 10:48:00,86.3,78.2,29.93,SSE,161,3.0,5.0,77,0.00,,FEW,0.00,613.00,VWS V14.01,2013-10-22 14:48:00,
2013-10-22 10:49:00,86.4,78.3,29.93,South,177,6.0,6.0,77,0.00,,FEW,0.00,613.00,VWS V14.01,2013-10-22 14:49:00,
2013-10-22 10:50:00,86.4,78.3,29.93,SSE,154,4.0,6.0,77,0.00,,FEW,0.00,656.00,VWS V14.01,2013-10-22 14:50:00,
2013-10-22 10:52:00,86.3,77.8,29.93,SSE,159,1.0,6.0,76,0.00,,FEW,0.00,656.00,VWS V14.01,2013-10-22 14:52:00,
2013-10-22 10:53:00,86.3,78.2,29.93,SE,131,3.0,7.0,77,0.00,,FEW,0.00,652.00,VWS V14.01,2013-10-22 14:53:00,
2013-10-22 10:54:00,86.3,78.2,29.93,South,188,4.0,7.0,77,0.00,,FEW,0.00,652.00,VWS V14.01,2013-10-22 14:54:00,
2013-10-22 10:55:00,86.3,78.2,29.93,SE,140,3.0,5.0,77,0.00,,FEW,0.00,647.00,VWS V14.01,2013-10-22 14:55:00,
2013-10-22 10:57:00,86.4,77.9,29.93,SE,128,3.0,6.0,76,0.00,,FEW,0.00,645.00,VWS V14.01,2013-10-22 14:57:00,
2013-10-22 10:58:00,86.4,77.5,29.93,ESE,123,7.0,9.0,75,0.00,,FEW,0.00,598.00,VWS V14.01,2013-10-22 14:58:00,
2013-10-22 10:59:00,86.4,77.5,29.93,SSE,150,4.0,9.0,75,0.00,,FEW,0.00,598.00,VWS V14.01,2013-10-22 14:59:00,
2013-10-22 11:00:00,86.2,77.8,29.93,South,180,2.0,9.0,76,0.00,,FEW,0.00,636.00,VWS V14.01,2013-10-22 15:00:00,
2013-10-22 11:02:00,86.4,77.9,29.93,South,171,1.0,9.0,76,0.00,,FEW,0.00,682.00,VWS V14.01,2013-10-22 15:02:00,
2013-10-22 11:03:00,86.6,77.7,29.93,South,180,4.0,9.0,75,0.00,,FEW,0.00,652.00,VWS V14.01,2013-10-22 15:03:00,
2013-10-22 11:04:00,86.6,77.7,29.93,South,184,5.0,9.0,75,0.00,,FEW,0.00,652.00,VWS V14.01,2013-10-22 15:04:00,
2013-10-22 11:05:00,86.5,77.6,29.93,SSE,159,5.0,5.0,75,0.00,,FEW,0.00,650.00,VWS V14.01,2013-10-22 15:05:00,
2013-10-22 11:07:00,86.3,77.8,29.93,SSE,153,4.0,8.0,76,0.00,,FEW,0.00,664.00,VWS V14.01,2013-10-22 15:07:00,
2013-10-22 11:08:00,86.3,77.8,29.93,South,180,3.0,8.0,76,0.00,,FEW,0.00,659.00,VWS V14.01,2013-10-22 15:08:00,
2013-10-22 11:09:00,86.5,78.0,29.93,South,173,4.0,8.0,76,0.00,,FEW,0.00,656.00,VWS V14.01,2013-10-22 15:09:00,
2013-10-22 11:10:00,86.6,78.1,29.93,SSE,150,4.0,8.0,76,0.00,,FEW,0.00,656.00,VWS V14.01,2013-10-22 15:10:00,
2013-10-22 11:11:00,86.6,78.1,29.93,SSW,199,2.0,8.0,76,0.00,,FEW,0.00,664.00,VWS V14.01,2013-10-22 15:11:00,
2013-10-22 11:12:00,86.7,78.2,29.93,SSE,161,4.0,9.0,76,0.00,,FEW,0.00,664.00,VWS V14.01,2013-10-22 15:12:00,
2013-10-22 11:13:00,86.6,78.1,29.93,SSE,165,7.0,9.0,76,0.00,,FEW,0.00,664.00,VWS V14.01,2013-10-22 15:13:00,
2013-10-22 11:14:00,86.5,78.0,29.93,SSE,155,3.0,9.0,76,0.00,,FEW,0.00,664.00,VWS V14.01,2013-10-22 15:14:00,
2013-10-22 11:15:00,86.4,77.9,29.93,SSE,150,2.0,3.0,76,0.00,,FEW,0.00,664.00,VWS V14.01,2013-10-22 15:15:00,
2013-10-22 11:16:00,86.4,77.9,29.93,South,175,2.0,3.0,76,0.00,,FEW,0.00,700.00,VWS V14.01,2013-10-22 15:16:00,
2013-10-22 11:17:00,86.4,78.3,29.93,SSE,148,6.0,6.0,77,0.00,,FEW,0.00,686.00,VWS V14.01,2013-10-22 15:17:00,
2013-10-22 11:18:00,86.4,77.9,29.93,SSE,148,4.0,6.0,76,0.00,,FEW,0.00,677.00,VWS V14.01,2013-10-22 15:18:00,
2013-10-22 11:19:00,86.5,78.4,29.93,SE,133,5.0,6.0,77,0.00,,FEW,0.00,673.00,VWS V14.01,2013-10-22 15:19:00,
2013-10-22 11:20:00,86.6,78.5,29.93,South,186,2.0,6.0,77,0.00,,FEW,0.00,673.00,VWS V14.01,2013-10-22 15:20:00,
2013-10-22 11:22:00,87.0,78.5,29.93,South,190,2.0,6.0,76,0.00,,FEW,0.00,691.00,VWS V14.01,2013-10-22 15:22:00,
2013-10-22 11:23:00,87.0,78.5,29.93,SSE,156,2.0,7.0,76,0.00,,FEW,0.00,705.00,VWS V14.01,2013-10-22 15:23:00,
2013-10-22 11:24:00,87.3,78.8,29.93,SSE,157,3.0,3.0,76,0.00,,FEW,0.00,740.00,VWS V14.01,2013-10-22 15:24:00,
2013-10-22 11:25:00,87.4,78.9,29.93,SSE,157,2.0,3.0,76,0.00,,FEW,0.00,740.00,VWS V14.01,2013-10-22 15:25:00,
2013-10-22 11:26:00,87.3,78.4,29.93,SSW,194,1.0,4.0,75,0.00,,FEW,0.00,775.00,VWS V14.01,2013-10-22 15:26:00,
2013-10-22 11:27:00,87.4,78.9,29.93,SSE,153,2.0,5.0,76,0.00,,FEW,0.00,775.00,VWS V14.01,2013-10-22 15:27:00,
2013-10-22 11:28:00,87.3,78.8,29.93,South,177,5.0,5.0,76,0.00,,FEW,0.00,772.00,VWS V14.01,2013-10-22 15:28:00,
2013-10-22 11:29:00,87.3,78.4,29.93,SE,145,4.0,6.0,75,0.00,,FEW,0.00,772.00,VWS V14.01,2013-10-22 15:29:00,
2013-10-22 11:30:00,87.1,78.2,29.93,South,181,3.0,6.0,75,0.00,,FEW,0.00,749.00,VWS V14.01,2013-10-22 15:30:00,
2013-10-22 11:31:00,87.1,78.2,29.93,South,175,5.0,7.0,75,0.00,,FEW,0.00,724.00,VWS V14.01,2013-10-22 15:31:00,
2013-10-22 11:33:00,87.1,78.2,29.93,South,184,6.0,9.0,75,0.00,,FEW,0.00,708.00,VWS V14.01,2013-10-22 15:33:00,
2013-10-22 11:34:00,87.0,78.1,29.93,South,180,3.0,9.0,75,0.00,,FEW,0.00,705.00,VWS V14.01,2013-10-22 15:34:00,
2013-10-22 11:35:00,87.0,78.1,29.93,SE,144,4.0,5.0,75,0.00,,FEW,0.00,701.00,VWS V14.01,2013-10-22 15:35:00,
2013-10-22 11:37:00,86.8,78.3,29.93,SE,126,2.0,7.0,76,0.00,,FEW,0.00,701.00,VWS V14.01,2013-10-22 15:37:00,
2013-10-22 11:38:00,86.8,78.3,29.93,SSE,149,4.0,7.0,76,0.00,,FEW,0.00,703.00,VWS V14.01,2013-10-22 15:38:00,
2013-10-22 11:39:00,86.6,78.1,29.93,SSE,159,5.0,7.0,76,0.00,,FEW,0.00,703.00,VWS V14.01,2013-10-22 15:39:00,
2013-10-22 11:40:00,86.7,78.2,29.93,SSE,148,5.0,7.0,76,0.00,,FEW,0.00,708.00,VWS V14.01,2013-10-22 15:40:00,
2013-10-22 11:41:00,86.7,78.2,29.93,SSW,198,5.0,7.0,76,0.00,,FEW,0.00,717.00,VWS V14.01,2013-10-22 15:41:00,
2013-10-22 11:42:00,86.8,78.7,29.93,South,187,4.0,7.0,77,0.00,,FEW,0.00,728.00,VWS V14.01,2013-10-22 15:42:00,
2013-10-22 11:43:00,86.8,78.3,29.93,SSW,198,2.0,7.0,76,0.00,,FEW,0.00,728.00,VWS V14.01,2013-10-22 15:43:00,
2013-10-22 11:44:00,86.9,78.4,29.93,SE,140,1.0,7.0,76,0.00,,FEW,0.00,728.00,VWS V14.01,2013-10-22 15:44:00,
2013-10-22 11:45:00,86.8,78.3,29.93,SE,140,4.0,4.0,76,0.00,,FEW,0.00,728.00,VWS V14.01,2013-10-22 15:45:00,
2013-10-22 11:46:00,86.8,78.3,29.93,SSE,165,5.0,5.0,76,0.00,,FEW,0.00,740.00,VWS V14.01,2013-10-22 15:46:00,
2013-10-22 11:47:00,86.9,78.4,29.93,South,178,5.0,6.0,76,0.00,,FEW,0.00,724.00,VWS V14.01,2013-10-22 15:47:00,
2013-10-22 11:48:00,86.8,78.3,29.92,South,182,4.0,6.0,76,0.00,,FEW,0.00,721.00,VWS V14.01,2013-10-22 15:48:00,
2013-10-22 11:49:00,86.9,78.4,29.92,South,170,1.0,6.0,76,0.00,,FEW,0.00,719.00,VWS V14.01,2013-10-22 15:49:00,
2013-10-22 11:50:00,87.2,78.7,29.92,SSE,164,3.0,6.0,76,0.00,,FEW,0.00,721.00,VWS V14.01,2013-10-22 15:50:00,
2013-10-22 11:51:00,87.3,78.8,29.92,South,180,2.0,6.0,76,0.00,,FEW,0.00,722.00,VWS V14.01,2013-10-22 15:51:00,
2013-10-22 11:53:00,87.3,78.4,29.92,South,178,2.0,6.0,75,0.00,,FEW,0.00,728.00,VWS V14.01,2013-10-22 15:53:00,
2013-10-22 11:54:00,87.3,78.8,29.92,SSE,164,3.0,6.0,76,0.00,,FEW,0.00,728.00,VWS V14.01,2013-10-22 15:54:00,
2013-10-22 11:56:00,87.2,78.3,29.92,SSE,151,4.0,5.0,75,0.00,,FEW,0.00,758.00,VWS V14.01,2013-10-22 15:56:00,
2013-10-22 11:58:00,87.1,78.6,29.92,South,176,4.0,6.0,76,0.00,,FEW,0.00,747.00,VWS V14.01,2013-10-22 15:58:00,
2013-10-22 11:59:00,87.1,78.6,29.92,SSW,194,4.0,6.0,76,0.00,,FEW,0.00,744.00,VWS V14.01,2013-10-22 15:59:00,
2013-10-22 12:01:00,87.1,78.6,29.92,SSW,193,3.0,6.0,76,0.00,,FEW,0.00,754.00,VWS V14.01,2013-10-22 16:01:00,
2013-10-22 12:03:00,87.0,78.5,29.92,SSW,198,2.0,6.0,76,0.00,,FEW,0.00,773.00,VWS V14.01,2013-10-22 16:03:00,
2013-10-22 12:04:00,87.0,78.5,29.92,SSW,200,3.0,6.0,76,0.00,,FEW,0.00,773.00,VWS V14.01,2013-10-22 16:04:00,
2013-10-22 12:06:00,87.4,78.9,29.92,South,173,3.0,6.0,76,0.00,,FEW,0.00,752.00,VWS V14.01,2013-10-22 16:06:00,
2013-10-22 12:07:00,87.4,78.9,29.92,SSE,155,5.0,6.0,76,0.00,,FEW,0.00,752.00,VWS V14.01,2013-10-22 16:07:00,
2013-10-22 12:08:00,87.5,79.0,29.92,SSE,163,3.0,6.0,76,0.00,,FEW,0.00,749.00,VWS V14.01,2013-10-22 16:08:00,
2013-10-22 12:09:00,87.7,78.8,29.92,South,177,1.0,6.0,75,0.00,,FEW,0.00,751.00,VWS V14.01,2013-10-22 16:09:00,
2013-10-22 12:10:00,87.8,78.5,29.92,South,181,7.0,7.0,74,0.00,,FEW,0.00,749.00,VWS V14.01,2013-10-22 16:10:00,
2013-10-22 12:11:00,87.9,78.6,29.92,SSE,158,2.0,7.0,74,0.00,,FEW,0.00,751.00,VWS V14.01,2013-10-22 16:11:00,
2013-10-22 12:12:00,87.9,78.6,29.92,South,173,1.0,7.0,74,0.00,,FEW,0.00,751.00,VWS V14.01,2013-10-22 16:12:00,
2013-10-22 12:14:00,87.8,78.5,29.92,South,177,5.0,5.0,74,0.00,,FEW,0.00,751.00,VWS V14.01,2013-10-22 16:14:00,
2013-10-22 12:15:00,87.7,78.4,29.92,South,169,3.0,5.0,74,0.00,,FEW,0.00,752.00,VWS V14.01,2013-10-22 16:15:00,
2013-10-22 12:17:00,87.4,78.1,29.92,SSE,166,3.0,7.0,74,0.00,,FEW,0.00,754.00,VWS V14.01,2013-10-22 16:17:00,
2013-10-22 12:19:00,87.2,78.3,29.91,SE,142,2.0,7.0,75,0.00,,FEW,0.00,758.00,VWS V14.01,2013-10-22 16:19:00,
2013-10-22 12:20:00,87.2,78.3,29.91,SE,142,2.0,7.0,75,0.00,,FEW,0.00,758.00,VWS V14.01,2013-10-22 16:20:00,
2013-10-22 12:22:00,87.2,78.3,29.91,South,170,7.0,7.0,75,0.00,,FEW,0.00,761.00,VWS V14.01,2013-10-22 16:22:00,
2013-10-22 12:25:00,87.2,78.3,29.91,SE,144,6.0,6.0,75,0.00,,FEW,0.00,784.00,VWS V14.01,2013-10-22 16:25:00,
2013-10-22 12:27:00,87.1,78.2,29.91,SE,138,2.0,7.0,75,0.00,,FEW,0.00,768.00,VWS V14.01,2013-10-22 16:27:00,
2013-10-22 12:28:00,87.1,78.2,29.91,ESE,113,2.0,7.0,75,0.00,,FEW,0.00,768.00,VWS V14.01,2013-10-22 16:28:00,
2013-10-22 12:30:00,87.2,78.3,29.91,SSE,164,2.0,7.0,75,0.00,,FEW,0.00,770.00,VWS V14.01,2013-10-22 16:30:00,
2013-10-22 12:32:00,87.6,78.7,29.91,South,184,5.0,7.0,75,0.00,,FEW,0.00,766.00,VWS V14.01,2013-10-22 16:32:00,
2013-10-22 12:33:00,87.5,78.6,29.91,SE,130,3.0,7.0,75,0.00,,FEW,0.00,766.00,VWS V14.01,2013-10-22 16:33:00,
2013-10-22 12:35:00,87.5,78.6,29.91,South,183,4.0,8.0,75,0.00,,FEW,0.00,770.00,VWS V14.01,2013-10-22 16:35:00,
2013-10-22 12:37:00,87.5,78.6,29.91,South,171,4.0,8.0,75,0.00,,FEW,0.00,770.00,VWS V14.01,2013-10-22 16:37:00,
2013-10-22 12:38:00,87.5,78.6,29.91,South,180,3.0,8.0,75,0.00,,FEW,0.00,770.00,VWS V14.01,2013-10-22 16:38:00,
2013-10-22 12:39:00,87.6,78.7,29.91,South,177,3.0,8.0,75,0.00,,FEW,0.00,770.00,VWS V14.01,2013-10-22 16:39:00,
2013-10-22 12:40:00,87.5,78.6,29.91,South,181,4.0,8.0,75,0.00,,FEW,0.00,768.00,VWS V14.01,2013-10-22 16:40:00,
2013-10-22 12:41:00,87.4,78.5,29.91,SSW,200,6.0,8.0,75,0.00,,FEW,0.00,772.00,VWS V14.01,2013-10-22 16:41:00,
2013-10-22 12:42:00,87.3,78.4,29.91,SSE,154,2.0,8.0,75,0.00,,FEW,0.00,773.00,VWS V14.01,2013-10-22 16:42:00,
2013-10-22 12:43:00,87.2,78.3,29.91,SSE,159,1.0,8.0,75,0.00,,FEW,0.00,775.00,VWS V14.01,2013-10-22 16:43:00,
2013-10-22 12:44:00,87.2,78.3,29.91,SE,127,2.0,8.0,75,0.00,,FEW,0.00,775.00,VWS V14.01,2013-10-22 16:44:00,
2013-10-22 12:45:00,87.2,78.7,29.91,South,178,5.0,5.0,76,0.00,,FEW,0.00,779.00,VWS V14.01,2013-10-22 16:45:00,
2013-10-22 12:46:00,87.2,78.7,29.91,SSE,161,2.0,6.0,76,0.00,,FEW,0.00,784.00,VWS V14.01,2013-10-22 16:46:00,
2013-10-22 12:47:00,87.4,78.9,29.91,ESE,122,2.0,6.0,76,0.00,,FEW,0.00,796.00,VWS V14.01,2013-10-22 16:47:00,
2013-10-22 12:49:00,87.5,79.0,29.91,SSE,161,2.0,6.0,76,0.00,,FEW,0.00,789.00,VWS V14.01,2013-10-22 16:49:00,
2013-10-22 12:50:00,87.9,79.0,29.91,South,190,3.0,6.0,75,0.00,,FEW,0.00,786.00,VWS V14.01,2013-10-22 16:50:00,
2013-10-22 12:51:00,88.0,79.1,29.91,SSE,166,2.0,6.0,75,0.00,,FEW,0.00,786.00,VWS V14.01,2013-10-22 16:51:00,
2013-10-22 12:52:00,88.1,79.2,29.91,SSE,159,5.0,6.0,75,0.00,,FEW,0.00,788.00,VWS V14.01,2013-10-22 16:52:00,
2013-10-22 12:54:00,88.1,78.8,29.91,SSE,168,2.0,6.0,74,0.00,,FEW,0.00,786.00,VWS V14.01,2013-10-22 16:54:00,
2013-10-22 12:55:00,87.7,78.4,29.91,SE,140,4.0,7.0,74,0.00,,FEW,0.00,791.00,VWS V14.01,2013-10-22 16:55:00,
2013-10-22 12:56:00,87.6,78.3,29.91,SE,134,3.0,7.0,74,0.00,,FEW,0.00,791.00,VWS V14.01,2013-10-22 16:56:00,
2013-10-22 12:58:00,87.4,78.5,29.91,South,175,4.0,7.0,75,0.00,,FEW,0.00,812.00,VWS V14.01,2013-10-22 16:58:00,
2013-10-22 12:59:00,87.2,78.3,29.91,South,178,4.0,7.0,75,0.00,,FEW,0.00,812.00,VWS V14.01,2013-10-22 16:59:00,
2013-10-22 13:00:00,87.2,78.7,29.91,SSE,157,5.0,7.0,76,0.00,,FEW,0.00,784.00,VWS V14.01,2013-10-22 17:00:00,
2013-10-22 13:01:00,87.2,78.3,29.91,SSE,154,6.0,7.0,75,0.00,,FEW,0.00,779.00,VWS V14.01,2013-10-22 17:01:00,
2013-10-22 13:03:00,87.2,78.7,29.91,SSE,168,4.0,7.0,76,0.00,,FEW,0.00,777.00,VWS V14.01,2013-10-22 17:03:00,
2013-10-22 13:04:00,87.5,79.0,29.90,South,178,4.0,4.0,76,0.00,,FEW,0.00,779.00,VWS V14.01,2013-10-22 17:04:00,
2013-10-22 13:05:00,87.6,78.7,29.90,South,190,4.0,5.0,75,0.00,,FEW,0.00,779.00,VWS V14.01,2013-10-22 17:05:00,
2013-10-22 13:06:00,87.6,78.7,29.90,South,180,5.0,7.0,75,0.00,,FEW,0.00,777.00,VWS V14.01,2013-10-22 17:06:00,
2013-10-22 13:07:00,87.6,78.7,29.90,SSW,198,6.0,7.0,75,0.00,,FEW,0.00,777.00,VWS V14.01,2013-10-22 17:07:00,
2013-10-22 13:08:00,87.6,78.3,29.90,SE,140,3.0,8.0,74,0.00,,FEW,0.00,775.00,VWS V14.01,2013-10-22 17:08:00,
2013-10-22 13:09:00,87.9,79.0,29.90,SE,138,2.0,8.0,75,0.00,,FEW,0.00,779.00,VWS V14.01,2013-10-22 17:09:00,
2013-10-22 13:10:00,87.9,78.6,29.90,SE,140,3.0,8.0,74,0.00,,FEW,0.00,779.00,VWS V14.01,2013-10-22 17:10:00,
2013-10-22 13:11:00,87.9,78.6,29.90,ESE,123,4.0,8.0,74,0.00,,FEW,0.00,779.00,VWS V14.01,2013-10-22 17:11:00,
2013-10-22 13:12:00,87.9,78.6,29.90,SE,138,5.0,8.0,74,0.00,,FEW,0.00,779.00,VWS V14.01,2013-10-22 17:12:00,
2013-10-22 13:13:00,87.8,78.5,29.90,SSE,151,3.0,8.0,74,0.00,,FEW,0.00,779.00,VWS V14.01,2013-10-22 17:13:00,
2013-10-22 13:15:00,87.7,78.4,29.90,SSE,155,4.0,5.0,74,0.00,,FEW,0.00,777.00,VWS V14.01,2013-10-22 17:15:00,
2013-10-22 13:16:00,87.6,78.3,29.90,South,188,4.0,5.0,74,0.00,,FEW,0.00,777.00,VWS V14.01,2013-10-22 17:16:00,
2013-10-22 13:17:00,87.5,78.2,29.90,SE,140,4.0,6.0,74,0.00,,FEW,0.00,777.00,VWS V14.01,2013-10-22 17:17:00,
2013-10-22 13:18:00,87.4,78.5,29.89,South,177,4.0,8.0,75,0.00,,FEW,0.00,777.00,VWS V14.01,2013-10-22 17:18:00,
2013-10-22 13:20:00,87.4,78.5,29.89,South,173,4.0,8.0,75,0.00,,FEW,0.00,777.00,VWS V14.01,2013-10-22 17:20:00,
2013-10-22 13:21:00,87.4,78.5,29.89,SSE,167,3.0,8.0,75,0.00,,FEW,0.00,780.00,VWS V14.01,2013-10-22 17:21:00,
2013-10-22 13:22:00,87.5,79.0,29.89,SW,232,1.0,8.0,76,0.00,,FEW,0.00,782.00,VWS V14.01,2013-10-22 17:22:00,
2013-10-22 13:23:00,87.5,78.2,29.89,SSE,167,5.0,8.0,74,0.00,,FEW,0.00,777.00,VWS V14.01,2013-10-22 17:23:00,
2013-10-22 13:25:00,87.5,78.6,29.89,South,169,7.0,7.0,75,0.00,,FEW,0.00,773.00,VWS V14.01,2013-10-22 17:25:00,
2013-10-22 13:26:00,87.4,78.1,29.89,South,172,3.0,7.0,74,0.00,,FEW,0.00,775.00,VWS V14.01,2013-10-22 17:26:00,
2013-10-22 13:27:00,87.4,78.5,29.89,SSE,149,4.0,7.0,75,0.00,,FEW,0.00,775.00,VWS V14.01,2013-10-22 17:27:00,
2013-10-22 13:28:00,87.5,78.6,29.89,South,188,6.0,7.0,75,0.00,,FEW,0.00,775.00,VWS V14.01,2013-10-22 17:28:00,
2013-10-22 13:30:00,87.7,78.8,29.89,SSW,203,1.0,7.0,75,0.00,,FEW,0.00,780.00,VWS V14.01,2013-10-22 17:30:00,
2013-10-22 13:31:00,87.8,78.9,29.89,SSE,148,3.0,7.0,75,0.00,,FEW,0.00,780.00,VWS V14.01,2013-10-22 17:31:00,
2013-10-22 13:32:00,87.9,79.0,29.89,SSE,150,3.0,7.0,75,0.00,,FEW,0.00,780.00,VWS V14.01,2013-10-22 17:32:00,
2013-10-22 13:33:00,88.0,79.1,29.89,SE,130,3.0,7.0,75,0.00,,FEW,0.00,772.00,VWS V14.01,2013-10-22 17:33:00,
2013-10-22 13:35:00,88.0,79.1,29.89,SSE,158,2.0,5.0,75,0.00,,FEW,0.00,772.00,VWS V14.01,2013-10-22 17:35:00,
2013-10-22 13:36:00,88.1,78.8,29.89,SE,143,5.0,6.0,74,0.00,,FEW,0.00,773.00,VWS V14.01,2013-10-22 17:36:00,
2013-10-22 13:37:00,88.1,78.8,29.89,SE,138,6.0,6.0,74,0.00,,FEW,0.00,773.00,VWS V14.01,2013-10-22 17:37:00,
2013-10-22 13:39:00,88.2,78.4,29.89,ENE,74,1.0,8.0,73,0.00,,FEW,0.00,770.00,VWS V14.01,2013-10-22 17:39:00,
2013-10-22 13:41:00,88.4,78.7,29.89,South,175,5.0,8.0,73,0.00,,FEW,0.00,770.00,VWS V14.01,2013-10-22 17:41:00,
2013-10-22 13:42:00,88.4,78.7,29.89,SSE,159,6.0,8.0,73,0.00,,FEW,0.00,770.00,VWS V14.01,2013-10-22 17:42:00,
2013-10-22 13:43:00,88.3,78.6,29.89,South,173,6.0,8.0,73,0.00,,FEW,0.00,788.00,VWS V14.01,2013-10-22 17:43:00,
2013-10-22 13:44:00,88.0,78.7,29.89,SSE,157,4.0,8.0,74,0.00,,FEW,0.00,773.00,VWS V14.01,2013-10-22 17:44:00,
2013-10-22 13:46:00,87.8,78.9,29.89,SSW,213,6.0,7.0,75,0.00,,FEW,0.00,770.00,VWS V14.01,2013-10-22 17:46:00,
2013-10-22 13:47:00,87.7,78.4,29.89,SSE,155,7.0,7.0,74,0.00,,FEW,0.00,772.00,VWS V14.01,2013-10-22 17:47:00,
2013-10-22 13:48:00,87.6,78.3,29.88,South,182,4.0,7.0,74,0.00,,FEW,0.00,784.00,VWS V14.01,2013-10-22 17:48:00,
2013-10-22 13:49:00,87.6,78.3,29.88,South,182,2.0,7.0,74,0.00,,FEW,0.00,773.00,VWS V14.01,2013-10-22 17:49:00,
2013-10-22 13:51:00,87.7,78.4,29.88,SSW,198,2.0,7.0,74,0.00,,FEW,0.00,782.00,VWS V14.01,2013-10-22 17:51:00,
2013-10-22 13:52:00,87.7,78.8,29.88,SSW,194,5.0,7.0,75,0.00,,FEW,0.00,775.00,VWS V14.01,2013-10-22 17:52:00,
2013-10-22 13:53:00,87.8,78.9,29.88,SSW,198,4.0,7.0,75,0.00,,FEW,0.00,770.00,VWS V14.01,2013-10-22 17:53:00,
2013-10-22 13:54:00,87.7,78.8,29.88,NE,55,2.0,4.0,75,0.00,,FEW,0.00,763.00,VWS V14.01,2013-10-22 17:54:00,
2013-10-22 13:56:00,88.0,78.7,29.88,South,182,3.0,6.0,74,0.00,,FEW,0.00,761.00,VWS V14.01,2013-10-22 17:56:00,
2013-10-22 13:57:00,88.0,78.7,29.88,SSE,154,6.0,6.0,74,0.00,,FEW,0.00,761.00,VWS V14.01,2013-10-22 17:57:00,
2013-10-22 13:58:00,87.9,78.6,29.88,SSE,149,4.0,6.0,74,0.00,,FEW,0.00,759.00,VWS V14.01,2013-10-22 17:58:00,
2013-10-22 13:59:00,88.0,78.7,29.88,SSE,148,6.0,6.0,74,0.00,,FEW,0.00,758.00,VWS V14.01,2013-10-22 17:59:00,
2013-10-22 14:02:00,87.5,78.2,29.88,SSW,209,4.0,7.0,74,0.00,,FEW,0.00,754.00,VWS V14.01,2013-10-22 18:02:00,
2013-10-22 14:03:00,87.4,78.1,29.88,SSW,200,7.0,7.0,74,0.00,,FEW,0.00,754.00,VWS V14.01,2013-10-22 18:03:00,
2013-10-22 14:04:00,87.3,78.4,29.88,SSW,192,4.0,4.0,75,0.00,,FEW,0.00,756.00,VWS V14.01,2013-10-22 18:04:00,
2013-10-22 14:07:00,87.3,78.0,29.88,SSW,196,4.0,7.0,74,0.00,,FEW,0.00,754.00,VWS V14.01,2013-10-22 18:07:00,
2013-10-22 14:08:00,87.2,78.3,29.88,South,175,1.0,7.0,75,0.00,,FEW,0.00,759.00,VWS V14.01,2013-10-22 18:08:00,
2013-10-22 14:09:00,87.3,78.4,29.88,SW,219,2.0,7.0,75,0.00,,FEW,0.00,765.00,VWS V14.01,2013-10-22 18:09:00,
2013-10-22 14:12:00,87.7,78.8,29.88,South,188,6.0,7.0,75,0.00,,FEW,0.00,800.00,VWS V14.01,2013-10-22 18:12:00,
2013-10-22 14:13:00,87.6,78.7,29.88,SSW,203,5.0,7.0,75,0.00,,FEW,0.00,800.00,VWS V14.01,2013-10-22 18:13:00,
2013-10-22 14:14:00,87.2,78.3,29.88,SSW,199,6.0,6.0,75,0.00,,FEW,0.00,800.00,VWS V14.01,2013-10-22 18:14:00,
2013-10-22 14:15:00,87.2,78.3,29.88,SSW,193,4.0,6.0,75,0.00,,FEW,0.00,846.00,VWS V14.01,2013-10-22 18:15:00,
2013-10-22 14:17:00,86.9,78.8,29.88,SW,215,3.0,7.0,77,0.00,,FEW,0.00,844.00,VWS V14.01,2013-10-22 18:17:00,
2013-10-22 14:18:00,87.0,78.9,29.88,SSW,201,3.0,7.0,77,0.00,,FEW,0.00,807.00,VWS V14.01,2013-10-22 18:18:00,
2013-10-22 14:19:00,87.0,78.5,29.88,SSW,198,7.0,7.0,76,0.00,,FEW,0.00,777.00,VWS V14.01,2013-10-22 18:19:00,
2013-10-22 14:20:00,87.0,78.5,29.88,SW,234,5.0,7.0,76,0.00,,FEW,0.00,752.00,VWS V14.01,2013-10-22 18:20:00,
2013-10-22 14:22:00,87.1,79.0,29.88,South,190,3.0,7.0,77,0.00,,FEW,0.00,742.00,VWS V14.01,2013-10-22 18:22:00,
2013-10-22 14:23:00,87.2,79.1,29.88,SSW,201,6.0,7.0,77,0.00,,FEW,0.00,749.00,VWS V14.01,2013-10-22 18:23:00,
2013-10-22 14:24:00,87.3,78.8,29.88,South,178,0.0,7.0,76,0.00,,FEW,0.00,747.00,VWS V14.01,2013-10-22 18:24:00,
2013-10-22 14:25:00,87.5,79.0,29.88,South,189,2.0,7.0,76,0.00,,FEW,0.00,745.00,VWS V14.01,2013-10-22 18:25:00,
2013-10-22 14:27:00,87.6,78.7,29.88,South,177,2.0,7.0,75,0.00,,FEW,0.00,745.00,VWS V14.01,2013-10-22 18:27:00,
2013-10-22 14:28:00,87.6,79.1,29.88,South,169,4.0,7.0,76,0.00,,FEW,0.00,745.00,VWS V14.01,2013-10-22 18:28:00,
2013-10-22 14:29:00,87.6,78.7,29.88,SSE,160,1.0,7.0,75,0.00,,FEW,0.00,675.00,VWS V14.01,2013-10-22 18:29:00,
2013-10-22 14:31:00,87.4,78.5,29.88,SSW,211,5.0,7.0,75,0.00,,FEW,0.00,742.00,VWS V14.01,2013-10-22 18:31:00,
2013-10-22 14:33:00,87.2,78.3,29.88,SSW,194,3.0,7.0,75,0.00,,FEW,0.00,726.00,VWS V14.01,2013-10-22 18:33:00,
2013-10-22 14:34:00,87.2,78.3,29.88,SSW,198,4.0,7.0,75,0.00,,FEW,0.00,728.00,VWS V14.01,2013-10-22 18:34:00,
2013-10-22 14:36:00,87.2,78.7,29.88,South,178,5.0,7.0,76,0.00,,FEW,0.00,722.00,VWS V14.01,2013-10-22 18:36:00,
2013-10-22 14:38:00,87.0,78.5,29.88,SSE,164,3.0,7.0,76,0.00,,FEW,0.00,719.00,VWS V14.01,2013-10-22 18:38:00,
2013-10-22 14:39:00,86.9,78.4,29.88,SSW,202,6.0,7.0,76,0.00,,FEW,0.00,715.00,VWS V14.01,2013-10-22 18:39:00,
2013-10-22 14:41:00,86.8,78.7,29.88,SSW,194,4.0,7.0,77,0.00,,FEW,0.00,712.00,VWS V14.01,2013-10-22 18:41:00,
2013-10-22 14:42:00,86.8,78.7,29.88,South,186,5.0,7.0,77,0.00,,FEW,0.00,708.00,VWS V14.01,2013-10-22 18:42:00,
2013-10-22 14:43:00,86.7,78.6,29.88,SW,223,4.0,7.0,77,0.00,,FEW,0.00,708.00,VWS V14.01,2013-10-22 18:43:00,
2013-10-22 14:44:00,86.7,78.6,29.88,SSW,205,3.0,7.0,77,0.00,,FEW,0.00,708.00,VWS V14.01,2013-10-22 18:44:00,
2013-10-22 14:46:00,86.7,78.2,29.88,SSW,207,4.0,5.0,76,0.00,,FEW,0.00,712.00,VWS V14.01,2013-10-22 18:46:00,
2013-10-22 14:47:00,86.8,78.7,29.88,SSW,198,2.0,5.0,77,0.00,,FEW,0.00,712.00,VWS V14.01,2013-10-22 18:47:00,
2013-10-22 14:48:00,87.1,79.0,29.87,South,184,2.0,5.0,77,0.00,,FEW,0.00,712.00,VWS V14.01,2013-10-22 18:48:00,
2013-10-22 14:49:00,87.2,79.1,29.87,SSW,202,2.0,5.0,77,0.00,,FEW,0.00,712.00,VWS V14.01,2013-10-22 18:49:00,
2013-10-22 14:50:00,87.2,78.7,29.87,SSW,200,4.0,6.0,76,0.00,,FEW,0.00,712.00,VWS V14.01,2013-10-22 18:50:00,
2013-10-22 14:51:00,87.1,78.2,29.87,SSW,200,2.0,6.0,75,0.00,,FEW,0.00,712.00,VWS V14.01,2013-10-22 18:51:00,
2013-10-22 14:52:00,87.0,78.1,29.87,SSW,194,3.0,6.0,75,0.00,,FEW,0.00,712.00,VWS V14.01,2013-10-22 18:52:00,
2013-10-22 14:53:00,86.9,78.4,29.87,SSW,204,5.0,6.0,76,0.00,,FEW,0.00,733.00,VWS V14.01,2013-10-22 18:53:00,
2013-10-22 14:54:00,86.9,78.4,29.87,SSW,200,5.0,5.0,76,0.00,,FEW,0.00,717.00,VWS V14.01,2013-10-22 18:54:00,
2013-10-22 14:55:00,86.8,78.7,29.87,SSW,204,6.0,7.0,77,0.00,,FEW,0.00,694.00,VWS V14.01,2013-10-22 18:55:00,
2013-10-22 14:57:00,86.7,78.2,29.87,SSW,210,4.0,7.0,76,0.00,,FEW,0.00,694.00,VWS V14.01,2013-10-22 18:57:00,
2013-10-22 14:58:00,86.6,78.1,29.87,SSW,202,4.0,7.0,76,0.00,,FEW,0.00,677.00,VWS V14.01,2013-10-22 18:58:00,
2013-10-22 14:59:00,86.6,78.1,29.87,South,182,2.0,7.0,76,0.00,,FEW,0.00,675.00,VWS V14.01,2013-10-22 18:59:00,
2013-10-22 15:00:00,86.7,78.6,29.87,SSW,211,4.0,7.0,77,0.00,,FEW,0.00,675.00,VWS V14.01,2013-10-22 19:00:00,
2013-10-22 15:01:00,86.8,78.3,29.87,SW,214,1.0,7.0,76,0.00,,FEW,0.00,675.00,VWS V14.01,2013-10-22 19:01:00,
2013-10-22 15:02:00,86.9,78.4,29.87,South,186,3.0,7.0,76,0.00,,FEW,0.00,675.00,VWS V14.01,2013-10-22 19:02:00,
2013-10-22 15:04:00,86.8,77.9,29.87,SSW,192,4.0,7.0,75,0.00,,FEW,0.00,668.00,VWS V14.01,2013-10-22 19:04:00,
2013-10-22 15:06:00,87.0,78.9,29.87,SSW,194,4.0,5.0,77,0.00,,FEW,0.00,661.00,VWS V14.01,2013-10-22 19:06:00,
2013-10-22 15:07:00,87.1,78.2,29.87,SSW,199,5.0,7.0,75,0.00,,FEW,0.00,657.00,VWS V14.01,2013-10-22 19:07:00,
2013-10-22 15:09:00,87.0,78.1,29.87,South,179,1.0,7.0,75,0.00,,FEW,0.00,650.00,VWS V14.01,2013-10-22 19:09:00,
2013-10-22 15:11:00,87.0,78.1,29.87,South,171,5.0,7.0,75,0.00,,FEW,0.00,643.00,VWS V14.01,2013-10-22 19:11:00,
2013-10-22 15:12:00,86.9,78.4,29.87,SSW,195,3.0,7.0,76,0.00,,FEW,0.00,640.00,VWS V14.01,2013-10-22 19:12:00,
2013-10-22 15:13:00,87.0,78.5,29.87,SW,214,3.0,7.0,76,0.00,,FEW,0.00,640.00,VWS V14.01,2013-10-22 19:13:00,
2013-10-22 15:14:00,87.0,77.7,29.87,SSW,212,4.0,7.0,74,0.00,,FEW,0.00,640.00,VWS V14.01,2013-10-22 19:14:00,
2013-10-22 15:15:00,86.9,78.0,29.87,SSW,205,4.0,7.0,75,0.00,,FEW,0.00,638.00,VWS V14.01,2013-10-22 19:15:00,
2013-10-22 15:16:00,86.8,77.9,29.87,SSW,200,4.0,7.0,75,0.00,,FEW,0.00,631.00,VWS V14.01,2013-10-22 19:16:00,
2013-10-22 15:17:00,86.8,77.9,29.87,SW,217,5.0,7.0,75,0.00,,FEW,0.00,629.00,VWS V14.01,2013-10-22 19:17:00,
2013-10-22 15:18:00,86.8,77.9,29.87,SW,229,4.0,7.0,75,0.00,,FEW,0.00,629.00,VWS V14.01,2013-10-22 19:18:00,
2013-10-22 15:19:00,86.8,77.9,29.87,SSW,207,3.0,7.0,75,0.00,,FEW,0.00,628.00,VWS V14.01,2013-10-22 19:19:00,
2013-10-22 15:20:00,86.7,77.8,29.87,SSW,206,4.0,7.0,75,0.00,,FEW,0.00,624.00,VWS V14.01,2013-10-22 19:20:00,
2013-10-22 15:21:00,86.6,77.7,29.87,SSW,205,4.0,7.0,75,0.00,,FEW,0.00,622.00,VWS V14.01,2013-10-22 19:21:00,
2013-10-22 15:22:00,86.7,78.2,29.87,SSW,197,7.0,7.0,76,0.00,,FEW,0.00,615.00,VWS V14.01,2013-10-22 19:22:00,
2013-10-22 15:23:00,86.7,78.2,29.87,SW,225,2.0,8.0,76,0.00,,FEW,0.00,612.00,VWS V14.01,2013-10-22 19:23:00,
2013-10-22 15:24:00,86.6,78.1,29.87,SSW,207,2.0,3.0,76,0.00,,FEW,0.00,610.00,VWS V14.01,2013-10-22 19:24:00,
2013-10-22 15:26:00,86.6,77.7,29.87,SSW,194,5.0,5.0,75,0.00,,FEW,0.00,613.00,VWS V14.01,2013-10-22 19:26:00,
2013-10-22 15:27:00,86.6,78.1,29.87,SW,228,2.0,6.0,76,0.00,,FEW,0.00,621.00,VWS V14.01,2013-10-22 19:27:00,
2013-10-22 15:28:00,86.9,78.4,29.87,SW,223,5.0,6.0,76,0.00,,FEW,0.00,621.00,VWS V14.01,2013-10-22 19:28:00,
2013-10-22 15:29:00,86.9,78.0,29.87,SSW,198,3.0,6.0,75,0.00,,FEW,0.00,621.00,VWS V14.01,2013-10-22 19:29:00,
2013-10-22 15:31:00,86.8,77.9,29.87,SSW,198,3.0,6.0,75,0.00,,FEW,0.00,608.00,VWS V14.01,2013-10-22 19:31:00,
2013-10-22 15:32:00,86.8,77.9,29.87,SSE,159,3.0,6.0,75,0.00,,FEW,0.00,608.00,VWS V14.01,2013-10-22 19:32:00,
2013-10-22 15:33:00,86.9,78.0,29.87,SSW,200,6.0,6.0,75,0.00,,FEW,0.00,613.00,VWS V14.01,2013-10-22 19:33:00,
2013-10-22 15:34:00,86.9,78.4,29.87,SSW,196,5.0,6.0,76,0.00,,FEW,0.00,585.00,VWS V14.01,2013-10-22 19:34:00,
2013-10-22 15:36:00,86.8,78.3,29.87,SSW,205,6.0,7.0,76,0.00,,FEW,0.00,578.00,VWS V14.01,2013-10-22 19:36:00,
2013-10-22 15:37:00,86.8,78.3,29.87,SSW,209,5.0,7.0,76,0.00,,FEW,0.00,578.00,VWS V14.01,2013-10-22 19:37:00,
2013-10-22 15:38:00,86.8,78.3,29.87,SSW,202,4.0,7.0,76,0.00,,FEW,0.00,578.00,VWS V14.01,2013-10-22 19:38:00,
2013-10-22 15:39:00,86.8,78.3,29.87,SSW,209,4.0,7.0,76,0.00,,FEW,0.00,577.00,VWS V14.01,2013-10-22 19:39:00,
2013-10-22 15:42:00,86.8,78.3,29.87,SSW,194,5.0,7.0,76,0.00,,FEW,0.00,570.00,VWS V14.01,2013-10-22 19:42:00,
2013-10-22 15:43:00,86.8,78.7,29.87,South,175,2.0,7.0,77,0.00,,FEW,0.00,566.00,VWS V14.01,2013-10-22 19:43:00,
2013-10-22 15:44:00,87.0,78.5,29.87,SSE,166,3.0,5.0,76,0.00,,FEW,0.00,563.00,VWS V14.01,2013-10-22 19:44:00,
2013-10-22 15:47:00,87.1,78.6,29.87,SSW,212,7.0,7.0,76,0.00,,FEW,0.00,568.00,VWS V14.01,2013-10-22 19:47:00,
2013-10-22 15:48:00,87.0,78.1,29.87,SSW,192,5.0,7.0,75,0.00,,FEW,0.00,564.00,VWS V14.01,2013-10-22 19:48:00,
2013-10-22 15:49:00,86.8,78.3,29.87,SSW,208,4.0,7.0,76,0.00,,FEW,0.00,561.00,VWS V14.01,2013-10-22 19:49:00,
2013-10-22 15:50:00,86.7,78.2,29.87,SW,215,5.0,7.0,76,0.00,,FEW,0.00,555.00,VWS V14.01,2013-10-22 19:50:00,
2013-10-22 15:52:00,86.7,78.6,29.87,SW,217,5.0,7.0,77,0.00,,FEW,0.00,548.00,VWS V14.01,2013-10-22 19:52:00,
2013-10-22 15:53:00,86.7,78.6,29.87,SSW,209,2.0,7.0,77,0.00,,FEW,0.00,545.00,VWS V14.01,2013-10-22 19:53:00,
2013-10-22 15:54:00,86.8,78.7,29.87,SSW,210,2.0,7.0,77,0.00,,FEW,0.00,541.00,VWS V14.01,2013-10-22 19:54:00,
2013-10-22 15:55:00,86.8,78.3,29.87,SW,219,3.0,6.0,76,0.00,,FEW,0.00,540.00,VWS V14.01,2013-10-22 19:55:00,
2013-10-22 15:57:00,86.6,78.1,29.87,SSW,201,3.0,8.0,76,0.00,,FEW,0.00,540.00,VWS V14.01,2013-10-22 19:57:00,
2013-10-22 15:58:00,86.4,78.3,29.87,SSW,202,3.0,8.0,77,0.00,,FEW,0.00,548.00,VWS V14.01,2013-10-22 19:58:00,
2013-10-22 16:00:00,86.2,78.2,29.87,SSW,207,5.0,8.0,77,0.00,,FEW,0.00,102.00,VWS V14.01,2013-10-22 20:00:00,
2013-10-22 16:02:00,85.8,78.2,29.87,SSW,194,3.0,8.0,78,0.00,,FEW,0.00,529.00,VWS V14.01,2013-10-22 20:02:00,
2013-10-22 16:03:00,85.9,78.2,29.86,South,176,4.0,8.0,78,0.00,,FEW,0.00,522.00,VWS V14.01,2013-10-22 20:03:00,
2013-10-22 16:04:00,86.0,78.3,29.86,SSW,196,4.0,8.0,78,0.00,,FEW,0.00,522.00,VWS V14.01,2013-10-22 20:04:00,
2013-10-22 16:05:00,86.1,78.1,29.86,SSW,200,3.0,6.0,77,0.00,,FEW,0.00,515.00,VWS V14.01,2013-10-22 20:05:00,
2013-10-22 16:07:00,86.2,78.2,29.86,SSW,210,2.0,6.0,77,0.00,,FEW,0.00,510.00,VWS V14.01,2013-10-22 20:07:00,
2013-10-22 16:09:00,86.3,78.2,29.86,SSW,194,7.0,7.0,77,0.00,,FEW,0.00,510.00,VWS V14.01,2013-10-22 20:09:00,
2013-10-22 16:10:00,86.3,78.2,29.86,South,189,3.0,7.0,77,0.00,,FEW,0.00,510.00,VWS V14.01,2013-10-22 20:10:00,
2013-10-22 16:12:00,86.6,78.9,29.86,SSW,208,2.0,7.0,78,0.00,,FEW,0.00,524.00,VWS V14.01,2013-10-22 20:12:00,
2013-10-22 16:14:00,86.5,78.4,29.86,South,178,6.0,7.0,77,0.00,,FEW,0.00,258.00,VWS V14.01,2013-10-22 20:14:00,
2013-10-22 16:15:00,86.2,78.2,29.86,SW,228,4.0,5.0,77,0.00,,FEW,0.00,258.00,VWS V14.01,2013-10-22 20:15:00,
2013-10-22 16:18:00,86.0,77.9,29.86,SSW,209,3.0,6.0,77,0.00,,FEW,0.00,478.00,VWS V14.01,2013-10-22 20:18:00,
2013-10-22 16:19:00,86.0,78.3,29.86,SSW,202,4.0,6.0,78,0.00,,FEW,0.00,478.00,VWS V14.01,2013-10-22 20:19:00,
2013-10-22 16:20:00,86.2,78.2,29.86,SW,215,4.0,6.0,77,0.00,,FEW,0.00,471.00,VWS V14.01,2013-10-22 20:20:00,
2013-10-22 16:23:00,86.0,77.9,29.86,SSW,213,5.0,7.0,77,0.00,,FEW,0.00,452.00,VWS V14.01,2013-10-22 20:23:00,
2013-10-22 16:24:00,86.0,77.9,29.86,South,184,5.0,5.0,77,0.00,,FEW,0.00,450.00,VWS V14.01,2013-10-22 20:24:00,
2013-10-22 16:25:00,86.0,77.9,29.86,SSW,192,4.0,7.0,77,0.00,,FEW,0.00,443.00,VWS V14.01,2013-10-22 20:25:00,
2013-10-22 16:28:00,86.4,78.3,29.86,SSW,212,5.0,7.0,77,0.00,,FEW,0.00,439.00,VWS V14.01,2013-10-22 20:28:00,
2013-10-22 16:29:00,86.4,78.3,29.86,SSW,195,3.0,7.0,77,0.00,,FEW,0.00,438.00,VWS V14.01,2013-10-22 20:29:00,
2013-10-22 16:30:00,86.3,78.2,29.86,South,170,5.0,7.0,77,0.00,,FEW,0.00,431.00,VWS V14.01,2013-10-22 20:30:00,
2013-10-22 16:31:00,86.3,78.2,29.86,SSW,206,6.0,7.0,77,0.00,,FEW,0.00,431.00,VWS V14.01,2013-10-22 20:31:00,
2013-10-22 16:34:00,86.2,78.2,29.85,South,186,4.0,4.0,77,0.00,,FEW,0.00,403.00,VWS V14.01,2013-10-22 20:34:00,
2013-10-22 16:35:00,86.1,78.1,29.85,South,178,6.0,6.0,77,0.00,,FEW,0.00,422.00,VWS V14.01,2013-10-22 20:35:00,
2013-10-22 16:36:00,86.1,78.1,29.85,South,187,3.0,6.0,77,0.00,,FEW,0.00,420.00,VWS V14.01,2013-10-22 20:36:00,
2013-10-22 16:39:00,86.2,78.2,29.85,SSW,197,3.0,6.0,77,0.00,,FEW,0.00,404.00,VWS V14.01,2013-10-22 20:39:00,
2013-10-22 16:40:00,86.2,78.2,29.85,SSE,161,4.0,7.0,77,0.00,,FEW,0.00,401.00,VWS V14.01,2013-10-22 20:40:00,
2013-10-22 16:41:00,86.2,78.5,29.85,SSW,211,4.0,7.0,78,0.00,,FEW,0.00,397.00,VWS V14.01,2013-10-22 20:41:00,
2013-10-22 16:44:00,86.3,78.6,29.85,SSW,210,4.0,4.0,78,0.00,,FEW,0.00,381.00,VWS V14.01,2013-10-22 20:44:00,
2013-10-22 16:45:00,86.3,78.6,29.85,South,173,1.0,4.0,78,0.00,,FEW,0.00,380.00,VWS V14.01,2013-10-22 20:45:00,
2013-10-22 16:46:00,86.4,78.7,29.85,South,176,1.0,4.0,78,0.00,,FEW,0.00,380.00,VWS V14.01,2013-10-22 20:46:00,
2013-10-22 16:50:00,86.6,78.5,29.85,South,181,2.0,6.0,77,0.00,,FEW,0.00,367.00,VWS V14.01,2013-10-22 20:50:00,
2013-10-22 16:51:00,86.5,78.4,29.85,SSW,192,3.0,6.0,77,0.00,,FEW,0.00,366.00,VWS V14.01,2013-10-22 20:51:00,
2013-10-22 16:55:00,86.2,78.5,29.85,SSW,201,3.0,4.0,78,0.00,,FEW,0.00,348.00,VWS V14.01,2013-10-22 20:55:00,
2013-10-22 16:56:00,86.2,78.5,29.85,SSW,198,4.0,6.0,78,0.00,,FEW,0.00,345.00,VWS V14.01,2013-10-22 20:56:00,
2013-10-22 17:00:00,86.3,78.2,29.85,SSE,163,2.0,6.0,77,0.00,,FEW,0.00,334.00,VWS V14.01,2013-10-22 21:00:00,
2013-10-22 17:01:00,86.3,78.2,29.85,SSW,200,3.0,6.0,77,0.00,,FEW,0.00,330.00,VWS V14.01,2013-10-22 21:01:00,
2013-10-22 17:02:00,86.3,78.6,29.85,South,176,2.0,6.0,78,0.00,,FEW,0.00,327.00,VWS V14.01,2013-10-22 21:02:00,
2013-10-22 17:06:00,86.2,78.2,29.85,SSW,200,3.0,4.0,77,0.00,,FEW,0.00,313.00,VWS V14.01,2013-10-22 21:06:00,
2013-10-22 17:07:00,86.0,77.9,29.85,SSW,205,2.0,6.0,77,0.00,,FEW,0.00,306.00,VWS V14.01,2013-10-22 21:07:00,
2013-10-22 17:11:00,85.7,78.1,29.85,SSW,194,2.0,6.0,78,0.00,,FEW,0.00,297.00,VWS V14.01,2013-10-22 21:11:00,
2013-10-22 17:12:00,85.7,78.4,29.85,SE,144,1.0,6.0,79,0.00,,FEW,0.00,294.00,VWS V14.01,2013-10-22 21:12:00,
2013-10-22 17:13:00,85.7,78.1,29.85,SSE,167,2.0,6.0,78,0.00,,FEW,0.00,290.00,VWS V14.01,2013-10-22 21:13:00,
2013-10-22 17:16:00,85.9,78.2,29.85,South,173,2.0,4.0,78,0.00,,FEW,0.00,278.00,VWS V14.01,2013-10-22 21:16:00,
2013-10-22 17:17:00,85.9,78.6,29.85,South,171,3.0,4.0,79,0.00,,FEW,0.00,278.00,VWS V14.01,2013-10-22 21:17:00,
2013-10-22 17:18:00,86.0,78.3,29.85,SSE,163,1.0,5.0,78,0.00,,FEW,0.00,271.00,VWS V14.01,2013-10-22 21:18:00,
2013-10-22 17:21:00,85.7,78.1,29.84,South,169,3.0,5.0,78,0.00,,FEW,0.00,258.00,VWS V14.01,2013-10-22 21:21:00,
2013-10-22 17:22:00,85.7,78.1,29.84,South,181,5.0,5.0,78,0.00,,FEW,0.00,253.00,VWS V14.01,2013-10-22 21:22:00,
2013-10-22 17:23:00,85.7,78.4,29.84,SSE,155,2.0,5.0,79,0.00,,FEW,0.00,251.00,VWS V14.01,2013-10-22 21:23:00,
2013-10-22 17:26:00,85.7,78.4,29.84,South,173,1.0,4.0,79,0.00,,FEW,0.00,236.00,VWS V14.01,2013-10-22 21:26:00,
2013-10-22 17:27:00,85.7,78.4,29.84,South,173,2.0,4.0,79,0.00,,FEW,0.00,236.00,VWS V14.01,2013-10-22 21:27:00,
2013-10-22 17:28:00,85.7,78.4,29.84,South,173,2.0,4.0,79,0.00,,FEW,0.00,229.00,VWS V14.01,2013-10-22 21:28:00,
2013-10-22 17:32:00,85.6,78.3,29.84,SSW,193,3.0,4.0,79,0.00,,FEW,0.00,218.00,VWS V14.01,2013-10-22 21:32:00,
2013-10-22 17:33:00,85.5,78.2,29.84,SSW,192,5.0,5.0,79,0.00,,FEW,0.00,216.00,VWS V14.01,2013-10-22 21:33:00,
2013-10-22 17:37:00,85.5,78.2,29.84,South,171,1.0,4.0,79,0.00,,FEW,0.00,199.00,VWS V14.01,2013-10-22 21:37:00,
2013-10-22 17:38:00,85.5,78.6,29.84,SSW,203,4.0,4.0,80,0.00,,FEW,0.00,193.00,VWS V14.01,2013-10-22 21:38:00,
2013-10-22 17:39:00,85.5,78.2,29.84,SSW,194,2.0,4.0,79,0.00,,FEW,0.00,193.00,VWS V14.01,2013-10-22 21:39:00,
2013-10-22 17:42:00,85.4,78.2,29.84,South,182,3.0,4.0,79,0.00,,FEW,0.00,185.00,VWS V14.01,2013-10-22 21:42:00,
2013-10-22 17:43:00,85.5,78.6,29.84,SSW,213,4.0,4.0,80,0.00,,FEW,0.00,181.00,VWS V14.01,2013-10-22 21:43:00,
2013-10-22 17:44:00,85.5,78.6,29.84,SSW,194,4.0,5.0,80,0.00,,FEW,0.00,176.00,VWS V14.01,2013-10-22 21:44:00,
2013-10-22 17:47:00,85.2,78.3,29.84,South,184,4.0,5.0,80,0.00,,FEW,0.00,165.00,VWS V14.01,2013-10-22 21:47:00,
2013-10-22 17:48:00,85.1,78.6,29.84,SSE,165,2.0,5.0,81,0.00,,FEW,0.00,156.00,VWS V14.01,2013-10-22 21:48:00,
2013-10-22 17:49:00,85.1,78.2,29.84,SSE,159,1.0,5.0,80,0.00,,FEW,0.00,151.00,VWS V14.01,2013-10-22 21:49:00,
2013-10-22 17:52:00,85.2,78.7,29.84,SSE,168,2.0,5.0,81,0.00,,FEW,0.00,134.00,VWS V14.01,2013-10-22 21:52:00,
2013-10-22 17:53:00,85.2,78.7,29.84,South,187,6.0,6.0,81,0.00,,FEW,0.00,135.00,VWS V14.01,2013-10-22 21:53:00,
2013-10-22 17:54:00,85.1,78.6,29.84,SSW,194,5.0,6.0,81,0.00,,FEW,0.00,137.00,VWS V14.01,2013-10-22 21:54:00,
2013-10-22 17:55:00,85.0,78.1,29.84,South,185,2.0,3.0,80,0.00,,FEW,0.00,123.00,VWS V14.01,2013-10-22 21:55:00,
2013-10-22 17:57:00,85.0,78.5,29.84,SSW,206,4.0,6.0,81,0.00,,FEW,0.00,125.00,VWS V14.01,2013-10-22 21:57:00,
2013-10-22 17:58:00,85.0,78.5,29.84,SSW,194,2.0,6.0,81,0.00,,FEW,0.00,125.00,VWS V14.01,2013-10-22 21:58:00,
2013-10-22 17:59:00,85.0,78.5,29.84,SSW,199,1.0,6.0,81,0.00,,FEW,0.00,121.00,VWS V14.01,2013-10-22 21:59:00,
2013-10-22 18:00:00,85.0,78.5,29.84,SSE,148,0.0,6.0,81,0.00,,FEW,0.00,114.00,VWS V14.01,2013-10-22 22:00:00,
2013-10-22 18:02:00,85.0,78.1,29.84,South,188,3.0,6.0,80,0.00,,FEW,0.00,116.00,VWS V14.01,2013-10-22 22:02:00,
2013-10-22 18:03:00,85.0,78.1,29.84,South,186,3.0,6.0,80,0.00,,FEW,0.00,116.00,VWS V14.01,2013-10-22 22:03:00,
2013-10-22 18:04:00,85.0,78.1,29.84,SSE,150,3.0,6.0,80,0.00,,FEW,0.00,111.00,VWS V14.01,2013-10-22 22:04:00,
2013-10-22 18:06:00,84.8,78.3,29.84,South,173,1.0,4.0,81,0.00,,FEW,0.00,93.00,VWS V14.01,2013-10-22 22:06:00,
2013-10-22 18:07:00,84.8,78.3,29.84,SSE,163,1.0,4.0,81,0.00,,FEW,0.00,93.00,VWS V14.01,2013-10-22 22:07:00,
2013-10-22 18:08:00,84.8,78.3,29.84,SSE,168,1.0,4.0,81,0.00,,FEW,0.00,93.00,VWS V14.01,2013-10-22 22:08:00,
2013-10-22 18:09:00,84.9,78.4,29.84,South,169,1.0,4.0,81,0.00,,FEW,0.00,91.00,VWS V14.01,2013-10-22 22:09:00,
2013-10-22 18:11:00,84.9,78.4,29.84,South,171,1.0,4.0,81,0.00,,FEW,0.00,88.00,VWS V14.01,2013-10-22 22:11:00,
2013-10-22 18:12:00,85.0,78.5,29.84,South,183,1.0,4.0,81,0.00,,FEW,0.00,81.00,VWS V14.01,2013-10-22 22:12:00,
2013-10-22 18:13:00,85.0,78.5,29.84,South,183,0.0,4.0,81,0.00,,FEW,0.00,81.00,VWS V14.01,2013-10-22 22:13:00,
2013-10-22 18:14:00,85.0,78.5,29.84,South,178,4.0,4.0,81,0.00,,FEW,0.00,76.00,VWS V14.01,2013-10-22 22:14:00,
2013-10-22 18:15:00,85.0,78.5,29.84,SSE,153,3.0,4.0,81,0.00,,FEW,0.00,74.00,VWS V14.01,2013-10-22 22:15:00,
2013-10-22 18:16:00,84.9,78.4,29.84,SSE,158,1.0,4.0,81,0.00,,FEW,0.00,72.00,VWS V14.01,2013-10-22 22:16:00,
2013-10-22 18:18:00,84.8,78.3,29.84,South,177,1.0,4.0,81,0.00,,FEW,0.00,69.00,VWS V14.01,2013-10-22 22:18:00,
2013-10-22 18:19:00,84.8,78.3,29.84,SSE,151,0.0,4.0,81,0.00,,FEW,0.00,65.00,VWS V14.01,2013-10-22 22:19:00,
2013-10-22 18:20:00,84.8,78.3,29.84,South,171,0.0,4.0,81,0.00,,FEW,0.00,62.00,VWS V14.01,2013-10-22 22:20:00,
2013-10-22 18:21:00,84.7,78.2,29.84,SSE,153,3.0,4.0,81,0.00,,FEW,0.00,56.00,VWS V14.01,2013-10-22 22:21:00,
2013-10-22 18:23:00,84.7,78.6,29.84,SE,141,0.0,4.0,82,0.00,,FEW,0.00,49.00,VWS V14.01,2013-10-22 22:23:00,
2013-10-22 18:24:00,84.6,78.5,29.84,South,180,1.0,2.0,82,0.00,,FEW,0.00,47.00,VWS V14.01,2013-10-22 22:24:00,
2013-10-22 18:25:00,84.6,78.5,29.84,South,180,2.0,2.0,82,0.00,,FEW,0.00,46.00,VWS V14.01,2013-10-22 22:25:00,
2013-10-22 18:26:00,84.6,78.5,29.84,South,174,2.0,5.0,82,0.00,,FEW,0.00,44.00,VWS V14.01,2013-10-22 22:26:00,
2013-10-22 18:28:00,84.4,78.3,29.84,SSW,194,1.0,5.0,82,0.00,,FEW,0.00,40.00,VWS V14.01,2013-10-22 22:28:00,
2013-10-22 18:29:00,84.4,78.3,29.84,SSW,199,3.0,5.0,82,0.00,,FEW,0.00,39.00,VWS V14.01,2013-10-22 22:29:00,
2013-10-22 18:30:00,84.4,78.3,29.84,South,178,1.0,5.0,82,0.00,,FEW,0.00,37.00,VWS V14.01,2013-10-22 22:30:00,
2013-10-22 18:31:00,84.4,78.3,29.84,South,174,2.0,5.0,82,0.00,,FEW,0.00,30.00,VWS V14.01,2013-10-22 22:31:00,
2013-10-22 18:33:00,84.4,78.3,29.84,South,173,2.0,5.0,82,0.00,,FEW,0.00,23.00,VWS V14.01,2013-10-22 22:33:00,
2013-10-22 18:34:00,84.4,78.3,29.84,South,174,0.0,0.0,82,0.00,,FEW,0.00,19.00,VWS V14.01,2013-10-22 22:34:00,
2013-10-22 18:35:00,84.4,78.3,29.84,South,174,0.0,0.0,82,0.00,,FEW,0.00,19.00,VWS V14.01,2013-10-22 22:35:00,
2013-10-22 18:36:00,84.5,78.4,29.84,South,173,1.0,1.0,82,0.00,,FEW,0.00,18.00,VWS V14.01,2013-10-22 22:36:00,
2013-10-22 18:38:00,84.5,78.4,29.84,SSE,158,0.0,2.0,82,0.00,,FEW,0.00,16.00,VWS V14.01,2013-10-22 22:38:00,
2013-10-22 18:39:00,84.5,78.4,29.84,SSE,161,2.0,2.0,82,0.00,,FEW,0.00,16.00,VWS V14.01,2013-10-22 22:39:00,
2013-10-22 18:40:00,84.5,78.4,29.84,SSE,161,0.0,2.0,82,0.00,,FEW,0.00,14.00,VWS V14.01,2013-10-22 22:40:00,
2013-10-22 18:41:00,84.5,78.4,29.84,SSE,161,0.0,2.0,82,0.00,,FEW,0.00,14.00,VWS V14.01,2013-10-22 22:41:00,
2013-10-22 18:42:00,84.5,78.4,29.84,SSE,161,0.0,2.0,82,0.00,,FEW,0.00,12.00,VWS V14.01,2013-10-22 22:42:00,
2013-10-22 18:43:00,84.5,78.4,29.84,SSE,161,0.0,2.0,82,0.00,,FEW,0.00,11.00,VWS V14.01,2013-10-22 22:43:00,
2013-10-22 18:44:00,84.5,78.4,29.84,SSE,161,0.0,0.0,82,0.00,,FEW,0.00,11.00,VWS V14.01,2013-10-22 22:44:00,
2013-10-22 18:45:00,84.5,78.4,29.84,SSE,161,1.0,1.0,82,0.00,,FEW,0.00,9.00,VWS V14.01,2013-10-22 22:45:00,
2013-10-22 18:46:00,84.5,78.4,29.84,SSE,161,0.0,2.0,82,0.00,,FEW,0.00,9.00,VWS V14.01,2013-10-22 22:46:00,
2013-10-22 18:47:00,84.5,78.4,29.84,SSE,161,2.0,2.0,82,0.00,,FEW,0.00,7.00,VWS V14.01,2013-10-22 22:47:00,
2013-10-22 18:49:00,84.5,78.4,29.84,SSE,161,1.0,2.0,82,0.00,,FEW,0.00,5.00,VWS V14.01,2013-10-22 22:49:00,
2013-10-22 18:50:00,84.5,78.4,29.84,SSE,161,1.0,2.0,82,0.00,,FEW,0.00,0.00,VWS V14.01,2013-10-22 22:50:00,
2013-10-22 18:51:00,84.5,78.4,29.84,SSE,161,0.0,2.0,82,0.00,,FEW,0.00,0.00,VWS V14.01,2013-10-22 22:51:00,
2013-10-22 18:52:00,84.4,78.3,29.84,SSE,161,0.0,2.0,82,0.00,,FEW,0.00,0.00,VWS V14.01,2013-10-22 22:52:00,
2013-10-22 18:54:00,84.4,78.3,29.84,SSE,161,1.0,3.0,82,0.00,,FEW,0.00,0.00,VWS V14.01,2013-10-22 22:54:00,
2013-10-22 18:55:00,84.4,78.3,29.84,SSE,161,0.0,2.0,82,0.00,,FEW,0.00,0.00,VWS V14.01,2013-10-22 22:55:00,
2013-10-22 18:56:00,84.4,78.3,29.84,SSE,161,0.0,2.0,82,0.00,,FEW,0.00,0.00,VWS V14.01,2013-10-22 22:56:00,
2013-10-22 18:57:00,84.4,78.3,29.84,SSE,161,0.0,2.0,82,0.00,,FEW,0.00,0.00,VWS V14.01,2013-10-22 22:57:00,
2013-10-22 18:59:00,84.3,78.2,29.84,SSE,161,0.0,2.0,82,0.00,,FEW,0.00,0.00,VWS V14.01,2013-10-22 22:59:00,
2013-10-22 19:01:00,84.3,78.2,29.84,SSE,161,1.0,2.0,82,0.00,,FEW,0.00,0.00,VWS V14.01,2013-10-22 23:01:00,
2013-10-22 19:02:00,84.3,78.2,29.84,SSE,161,0.0,2.0,82,0.00,,FEW,0.00,0.00,VWS V14.01,2013-10-22 23:02:00,
2013-10-22 19:04:00,84.2,78.1,29.84,SSE,161,0.0,2.0,82,0.00,,FEW,0.00,0.00,VWS V14.01,2013-10-22 23:04:00,
2013-10-22 19:05:00,84.2,78.1,29.84,SSE,161,1.0,1.0,82,0.00,,FEW,0.00,0.00,VWS V14.01,2013-10-22 23:05:00,
2013-10-22 19:06:00,84.2,78.1,29.84,SSE,161,0.0,1.0,82,0.00,,FEW,0.00,0.00,VWS V14.01,2013-10-22 23:06:00,
2013-10-22 19:07:00,84.2,78.1,29.84,SSE,161,0.0,1.0,82,0.00,,FEW,0.00,0.00,VWS V14.01,2013-10-22 23:07:00,
2013-10-22 19:08:00,84.1,78.0,29.84,SSE,161,0.0,1.0,82,0.00,,FEW,0.00,0.00,VWS V14.01,2013-10-22 23:08:00,
2013-10-22 19:09:00,84.1,78.0,29.84,SSE,161,0.0,1.0,82,0.00,,FEW,0.00,0.00,VWS V14.01,2013-10-22 23:09:00,
2013-10-22 19:10:00,84.1,78.0,29.84,SSE,161,0.0,1.0,82,0.00,,FEW,0.00,0.00,VWS V14.01,2013-10-22 23:10:00,
2013-10-22 19:11:00,84.0,77.9,29.84,SSE,161,0.0,1.0,82,0.00,,FEW,0.00,0.00,VWS V14.01,2013-10-22 23:11:00,
2013-10-22 19:12:00,84.0,77.9,29.84,SSE,161,0.0,1.0,82,0.00,,FEW,0.00,0.00,VWS V14.01,2013-10-22 23:12:00,
2013-10-22 19:13:00,83.9,77.8,29.84,SSE,161,0.0,1.0,82,0.00,,FEW,0.00,0.00,VWS V14.01,2013-10-22 23:13:00,
2013-10-22 19:14:00,83.9,77.8,29.84,SSE,161,0.0,0.0,82,0.00,,FEW,0.00,0.00,VWS V14.01,2013-10-22 23:14:00,
2013-10-22 19:15:00,83.9,77.8,29.84,SSE,161,0.0,0.0,82,0.00,,FEW,0.00,0.00,VWS V14.01,2013-10-22 23:15:00,
2013-10-22 19:16:00,83.9,77.8,29.84,SSE,161,0.0,1.0,82,0.00,,FEW,0.00,0.00,VWS V14.01,2013-10-22 23:16:00,
2013-10-22 19:17:00,83.9,77.8,29.84,SSE,161,0.0,1.0,82,0.00,,FEW,0.00,0.00,VWS V14.01,2013-10-22 23:17:00,
2013-10-22 19:19:00,83.8,77.7,29.85,SSE,161,0.0,1.0,82,0.00,,FEW,0.00,0.00,VWS V14.01,2013-10-22 23:19:00,
2013-10-22 19:20:00,83.8,77.7,29.85,SSE,161,1.0,2.0,82,0.00,,FEW,0.00,0.00,VWS V14.01,2013-10-22 23:20:00,
2013-10-22 19:21:00,83.8,77.7,29.85,SSE,161,0.0,2.0,82,0.00,,FEW,0.00,0.00,VWS V14.01,2013-10-22 23:21:00,
2013-10-22 19:23:00,83.8,77.7,29.85,SSE,161,0.0,2.0,82,0.00,,FEW,0.00,0.00,VWS V14.01,2013-10-22 23:23:00,
2013-10-22 19:24:00,83.7,77.6,29.85,SSE,161,1.0,1.0,82,0.00,,FEW,0.00,0.00,VWS V14.01,2013-10-22 23:24:00,
2013-10-22 19:25:00,83.7,77.6,29.85,SSE,161,0.0,1.0,82,0.00,,FEW,0.00,0.00,VWS V14.01,2013-10-22 23:25:00,
2013-10-22 19:26:00,83.7,77.6,29.85,SSE,161,0.0,2.0,82,0.00,,FEW,0.00,0.00,VWS V14.01,2013-10-22 23:26:00,
2013-10-22 19:28:00,83.6,77.5,29.85,SSE,161,0.0,2.0,82,0.00,,FEW,0.00,0.00,VWS V14.01,2013-10-22 23:28:00,
2013-10-22 19:29:00,83.6,77.9,29.85,SSE,161,0.0,2.0,83,0.00,,FEW,0.00,0.00,VWS V14.01,2013-10-22 23:29:00,
2013-10-22 19:30:00,83.6,77.9,29.85,SSE,161,1.0,2.0,83,0.00,,FEW,0.00,0.00,VWS V14.01,2013-10-22 23:30:00,
2013-10-22 19:31:00,83.6,77.9,29.85,SSE,161,0.0,2.0,83,0.00,,FEW,0.00,0.00,VWS V14.01,2013-10-22 23:31:00,
2013-10-22 19:32:00,83.6,77.9,29.85,SSE,161,0.0,2.0,83,0.00,,FEW,0.00,0.00,VWS V14.01,2013-10-22 23:32:00,
2013-10-22 19:33:00,83.6,77.9,29.85,SSE,161,0.0,2.0,83,0.00,,FEW,0.00,0.00,VWS V14.01,2013-10-22 23:33:00,
2013-10-22 19:34:00,83.6,77.9,29.85,SSE,161,0.0,0.0,83,0.00,,FEW,0.00,0.00,VWS V14.01,2013-10-22 23:34:00,
2013-10-22 19:35:00,83.5,77.8,29.85,SSE,161,0.0,0.0,83,0.00,,FEW,0.00,0.00,VWS V14.01,2013-10-22 23:35:00,
2013-10-22 19:37:00,83.5,77.8,29.85,SSE,161,0.0,1.0,83,0.00,,FEW,0.00,0.00,VWS V14.01,2013-10-22 23:37:00,
2013-10-22 19:38:00,83.4,77.7,29.85,SSE,161,1.0,2.0,83,0.00,,FEW,0.00,0.00,VWS V14.01,2013-10-22 23:38:00,
2013-10-22 19:39:00,83.4,77.7,29.85,SSE,161,1.0,2.0,83,0.00,,FEW,0.00,0.00,VWS V14.01,2013-10-22 23:39:00,
2013-10-22 19:40:00,83.4,77.7,29.85,SSE,161,1.0,2.0,83,0.00,,FEW,0.00,0.00,VWS V14.01,2013-10-22 23:40:00,
2013-10-22 19:42:00,83.4,77.7,29.85,SSE,161,1.0,3.0,83,0.00,,FEW,0.00,0.00,VWS V14.01,2013-10-22 23:42:00,
2013-10-22 19:44:00,83.3,77.6,29.85,SSE,161,2.0,3.0,83,0.00,,FEW,0.00,0.00,VWS V14.01,2013-10-22 23:44:00,
2013-10-22 19:45:00,83.3,77.6,29.85,SSE,161,0.0,2.0,83,0.00,,FEW,0.00,0.00,VWS V14.01,2013-10-22 23:45:00,
2013-10-22 19:47:00,83.3,77.6,29.85,SSE,161,0.0,2.0,83,0.00,,FEW,0.00,0.00,VWS V14.01,2013-10-22 23:47:00,
2013-10-22 19:49:00,83.3,77.6,29.85,SSE,161,0.0,2.0,83,0.00,,FEW,0.00,0.00,VWS V14.01,2013-10-22 23:49:00,
2013-10-22 19:50:00,83.3,77.6,29.85,SSE,161,1.0,2.0,83,0.00,,FEW,0.00,0.00,VWS V14.01,2013-10-22 23:50:00,
2013-10-22 19:51:00,83.3,77.6,29.85,SSE,161,1.0,2.0,83,0.00,,FEW,0.00,0.00,VWS V14.01,2013-10-22 23:51:00,
2013-10-22 19:52:00,83.3,77.6,29.85,SSE,161,0.0,2.0,83,0.00,,FEW,0.00,0.00,VWS V14.01,2013-10-22 23:52:00,
2013-10-22 19:54:00,83.3,78.0,29.85,SSE,161,0.0,1.0,84,0.00,,FEW,0.00,0.00,VWS V14.01,2013-10-22 23:54:00,
2013-10-22 19:55:00,83.3,78.0,29.85,SSE,161,0.0,3.0,84,0.00,,FEW,0.00,0.00,VWS V14.01,2013-10-22 23:55:00,
2013-10-22 19:56:00,83.3,78.0,29.85,SSE,161,0.0,3.0,84,0.00,,FEW,0.00,0.00,VWS V14.01,2013-10-22 23:56:00,
2013-10-22 19:57:00,83.3,78.0,29.85,SSE,161,0.0,3.0,84,0.00,,FEW,0.00,0.00,VWS V14.01,2013-10-22 23:57:00,
2013-10-22 20:00:00,83.3,78.0,29.85,SSE,161,1.0,3.0,84,0.00,,FEW,0.00,0.00,VWS V14.01,2013-10-23 00:00:00,
2013-10-22 20:01:00,83.2,77.9,29.85,SSE,161,1.0,3.0,84,0.00,,FEW,0.00,0.00,VWS V14.01,2013-10-23 00:01:00,
2013-10-22 20:02:00,83.2,77.9,29.85,SSE,161,0.0,3.0,84,0.00,,FEW,0.00,0.00,VWS V14.01,2013-10-23 00:02:00,
2013-10-22 20:03:00,83.2,77.9,29.85,SSE,161,0.0,3.0,84,0.00,,FEW,0.00,0.00,VWS V14.01,2013-10-23 00:03:00,
2013-10-22 20:05:00,83.2,77.9,29.86,SSE,161,0.0,0.0,84,0.00,,FEW,0.00,0.00,VWS V14.01,2013-10-23 00:05:00,
2013-10-22 20:06:00,83.2,77.9,29.86,SSE,161,0.0,1.0,84,0.00,,FEW,0.00,0.00,VWS V14.01,2013-10-23 00:06:00,
2013-10-22 20:07:00,83.2,77.9,29.86,SSE,161,0.0,1.0,84,0.00,,FEW,0.00,0.00,VWS V14.01,2013-10-23 00:07:00,
2013-10-22 20:08:00,83.2,77.9,29.86,SSE,161,0.0,1.0,84,0.00,,FEW,0.00,0.00,VWS V14.01,2013-10-23 00:08:00,
2013-10-22 20:10:00,83.2,77.9,29.86,SSE,161,0.0,1.0,84,0.00,,FEW,0.00,0.00,VWS V14.01,2013-10-23 00:10:00,
2013-10-22 20:11:00,83.2,77.9,29.86,SSE,161,0.0,1.0,84,0.00,,FEW,0.00,0.00,VWS V14.01,2013-10-23 00:11:00,
2013-10-22 20:12:00,83.2,77.9,29.86,SSE,161,0.0,1.0,84,0.00,,FEW,0.00,0.00,VWS V14.01,2013-10-23 00:12:00,
2013-10-22 20:13:00,83.1,77.8,29.86,SSE,161,0.0,1.0,84,0.00,,FEW,0.00,0.00,VWS V14.01,2013-10-23 00:13:00,
2013-10-22 20:15:00,83.1,77.8,29.86,SSE,161,0.0,0.0,84,0.00,,FEW,0.00,0.00,VWS V14.01,2013-10-23 00:15:00,
2013-10-22 20:16:00,83.1,77.8,29.86,SSE,161,2.0,2.0,84,0.00,,FEW,0.00,0.00,VWS V14.01,2013-10-23 00:16:00,
2013-10-22 20:17:00,83.1,77.8,29.86,SSE,161,0.0,2.0,84,0.00,,FEW,0.00,0.00,VWS V14.01,2013-10-23 00:17:00,
2013-10-22 20:18:00,83.0,77.7,29.86,SSE,161,1.0,2.0,84,0.00,,FEW,0.00,0.00,VWS V14.01,2013-10-23 00:18:00,
2013-10-22 20:20:00,83.0,77.7,29.86,SSE,161,0.0,2.0,84,0.00,,FEW,0.00,0.00,VWS V14.01,2013-10-23 00:20:00,
2013-10-22 20:21:00,83.0,77.7,29.86,SSE,161,0.0,2.0,84,0.00,,FEW,0.00,0.00,VWS V14.01,2013-10-23 00:21:00,
2013-10-22 20:22:00,83.0,77.7,29.86,SSE,161,0.0,2.0,84,0.00,,FEW,0.00,0.00,VWS V14.01,2013-10-23 00:22:00,
2013-10-22 20:23:00,83.0,77.7,29.86,SSE,161,0.0,2.0,84,0.00,,FEW,0.00,0.00,VWS V14.01,2013-10-23 00:23:00,
2013-10-22 20:25:00,83.0,77.7,29.86,SSE,161,0.0,1.0,84,0.00,,FEW,0.00,0.00,VWS V14.01,2013-10-23 00:25:00,
2013-10-22 20:26:00,83.0,77.7,29.86,SSE,161,0.0,1.0,84,0.00,,FEW,0.00,0.00,VWS V14.01,2013-10-23 00:26:00,
2013-10-22 20:27:00,83.0,77.7,29.86,SSE,161,0.0,1.0,84,0.00,,FEW,0.00,0.00,VWS V14.01,2013-10-23 00:27:00,
2013-10-22 20:28:00,82.9,77.6,29.86,SSE,161,0.0,2.0,84,0.00,,FEW,0.00,0.00,VWS V14.01,2013-10-23 00:28:00,
2013-10-22 20:30:00,82.9,77.6,29.86,SSE,161,0.0,2.0,84,0.00,,FEW,0.00,0.00,VWS V14.01,2013-10-23 00:30:00,
2013-10-22 20:31:00,82.9,77.6,29.86,SSE,161,0.0,2.0,84,0.00,,FEW,0.00,0.00,VWS V14.01,2013-10-23 00:31:00,
2013-10-22 20:32:00,82.9,77.6,29.86,SSE,161,0.0,2.0,84,0.00,,FEW,0.00,0.00,VWS V14.01,2013-10-23 00:32:00,
2013-10-22 20:33:00,82.9,77.6,29.86,SSE,161,0.0,2.0,84,0.00,,FEW,0.00,0.00,VWS V14.01,2013-10-23 00:33:00,
2013-10-22 20:35:00,82.9,77.6,29.86,SSE,161,0.0,0.0,84,0.00,,FEW,0.00,0.00,VWS V14.01,2013-10-23 00:35:00,
2013-10-22 20:36:00,82.9,77.6,29.86,SSE,161,0.0,0.0,84,0.00,,FEW,0.00,0.00,VWS V14.01,2013-10-23 00:36:00,
2013-10-22 20:37:00,82.9,77.6,29.86,SSE,161,0.0,0.0,84,0.00,,FEW,0.00,0.00,VWS V14.01,2013-10-23 00:37:00,
2013-10-22 20:38:00,82.9,77.6,29.86,SSE,161,0.0,0.0,84,0.00,,FEW,0.00,0.00,VWS V14.01,2013-10-23 00:38:00,
2013-10-22 20:39:00,82.9,77.6,29.86,SSE,161,0.0,0.0,84,0.00,,FEW,0.00,0.00,VWS V14.01,2013-10-23 00:39:00,
2013-10-22 20:40:00,82.8,77.5,29.86,SSE,161,0.0,0.0,84,0.00,,FEW,0.00,0.00,VWS V14.01,2013-10-23 00:40:00,
2013-10-22 20:42:00,82.8,77.5,29.86,SSE,161,0.0,0.0,84,0.00,,FEW,0.00,0.00,VWS V14.01,2013-10-23 00:42:00,
2013-10-22 20:43:00,82.8,77.5,29.86,SSE,161,0.0,0.0,84,0.00,,FEW,0.00,0.00,VWS V14.01,2013-10-23 00:43:00,
2013-10-22 20:44:00,82.8,77.5,29.86,SSE,161,1.0,1.0,84,0.00,,FEW,0.00,0.00,VWS V14.01,2013-10-23 00:44:00,
2013-10-22 20:45:00,82.7,77.4,29.86,SSE,161,1.0,1.0,84,0.00,,FEW,0.00,0.00,VWS V14.01,2013-10-23 00:45:00,
2013-10-22 20:47:00,82.7,77.4,29.86,SSE,161,1.0,1.0,84,0.00,,FEW,0.00,0.00,VWS V14.01,2013-10-23 00:47:00,
2013-10-22 20:48:00,82.7,77.4,29.86,SSE,161,0.0,1.0,84,0.00,,FEW,0.00,0.00,VWS V14.01,2013-10-23 00:48:00,
2013-10-22 20:49:00,82.7,77.4,29.87,SSE,161,1.0,1.0,84,0.00,,FEW,0.00,0.00,VWS V14.01,2013-10-23 00:49:00,
2013-10-22 20:51:00,82.7,77.4,29.87,SSE,161,0.0,1.0,84,0.00,,FEW,0.00,0.00,VWS V14.01,2013-10-23 00:51:00,
2013-10-22 20:52:00,82.7,77.4,29.87,SSE,161,0.0,1.0,84,0.00,,FEW,0.00,0.00,VWS V14.01,2013-10-23 00:52:00,
2013-10-22 20:53:00,82.7,77.4,29.87,SSE,161,0.0,1.0,84,0.00,,FEW,0.00,0.00,VWS V14.01,2013-10-23 00:53:00,
2013-10-22 20:54:00,82.7,77.4,29.87,SSE,161,0.0,1.0,84,0.00,,FEW,0.00,0.00,VWS V14.01,2013-10-23 00:54:00,
2013-10-22 20:56:00,82.7,77.4,29.87,SSE,161,0.0,0.0,84,0.00,,FEW,0.00,0.00,VWS V14.01,2013-10-23 00:56:00,
2013-10-22 20:58:00,82.6,77.3,29.87,SSE,161,0.0,1.0,84,0.00,,FEW,0.00,0.00,VWS V14.01,2013-10-23 00:58:00,
2013-10-22 20:59:00,82.6,77.3,29.87,SSE,161,0.0,1.0,84,0.00,,FEW,0.00,0.00,VWS V14.01,2013-10-23 00:59:00,
2013-10-22 21:00:00,82.6,77.3,29.87,SSE,161,0.0,1.0,84,0.00,,FEW,0.00,0.00,VWS V14.01,2013-10-23 01:00:00,
2013-10-22 21:01:00,82.6,77.3,29.87,SSE,161,0.0,1.0,84,0.00,,FEW,0.00,0.00,VWS V14.01,2013-10-23 01:01:00,
2013-10-22 21:03:00,82.6,77.3,29.87,SSE,161,0.0,1.0,84,0.00,,FEW,0.00,0.00,VWS V14.01,2013-10-23 01:03:00,
2013-10-22 21:04:00,82.6,77.3,29.87,SSE,161,0.0,1.0,84,0.00,,FEW,0.00,0.00,VWS V14.01,2013-10-23 01:04:00,
2013-10-22 21:05:00,82.6,77.3,29.87,SSE,161,0.0,0.0,84,0.00,,FEW,0.00,0.00,VWS V14.01,2013-10-23 01:05:00,
2013-10-22 21:06:00,82.6,77.6,29.87,SSE,161,0.0,0.0,85,0.00,,FEW,0.00,0.00,VWS V14.01,2013-10-23 01:06:00,
2013-10-22 21:08:00,82.6,77.6,29.87,SSE,161,0.0,2.0,85,0.00,,FEW,0.00,0.00,VWS V14.01,2013-10-23 01:08:00,
2013-10-22 21:09:00,82.6,77.6,29.87,SSE,161,0.0,2.0,85,0.00,,FEW,0.00,0.00,VWS V14.01,2013-10-23 01:09:00,
2013-10-22 21:10:00,82.6,77.6,29.87,SSE,161,0.0,2.0,85,0.00,,FEW,0.00,0.00,VWS V14.01,2013-10-23 01:10:00,
2013-10-22 21:11:00,82.6,77.6,29.87,SSE,161,0.0,2.0,85,0.00,,FEW,0.00,0.00,VWS V14.01,2013-10-23 01:11:00,
2013-10-22 21:13:00,82.5,77.5,29.87,SSE,161,0.0,2.0,85,0.00,,FEW,0.00,0.00,VWS V14.01,2013-10-23 01:13:00,
2013-10-22 21:14:00,82.5,77.5,29.87,SSE,161,0.0,2.0,85,0.00,,FEW,0.00,0.00,VWS V14.01,2013-10-23 01:14:00,
2013-10-22 21:15:00,82.5,77.5,29.87,SSE,161,0.0,1.0,85,0.00,,FEW,0.00,0.00,VWS V14.01,2013-10-23 01:15:00,
2013-10-22 21:16:00,82.5,77.5,29.87,SSE,161,0.0,1.0,85,0.00,,FEW,0.00,0.00,VWS V14.01,2013-10-23 01:16:00,
2013-10-22 21:18:00,82.5,77.5,29.87,SSE,161,0.0,1.0,85,0.00,,FEW,0.00,0.00,VWS V14.01,2013-10-23 01:18:00,
2013-10-22 21:19:00,82.5,77.5,29.87,SSE,161,0.0,1.0,85,0.00,,FEW,0.00,0.00,VWS V14.01,2013-10-23 01:19:00,
2013-10-22 21:21:00,82.5,77.5,29.87,SSE,161,0.0,1.0,85,0.00,,FEW,0.00,0.00,VWS V14.01,2013-10-23 01:21:00,
2013-10-22 21:22:00,82.5,77.5,29.87,SSE,161,0.0,1.0,85,0.00,,FEW,0.00,0.00,VWS V14.01,2013-10-23 01:22:00,
2013-10-22 21:23:00,82.5,77.5,29.87,SSE,161,0.0,1.0,85,0.00,,FEW,0.00,0.00,VWS V14.01,2013-10-23 01:23:00,
2013-10-22 21:24:00,82.5,77.5,29.87,SSE,161,0.0,1.0,85,0.00,,FEW,0.00,0.00,VWS V14.01,2013-10-23 01:24:00,
2013-10-22 21:25:00,82.5,77.5,29.87,SSE,161,0.0,0.0,85,0.00,,FEW,0.00,0.00,VWS V14.01,2013-10-23 01:25:00,
2013-10-22 21:26:00,82.5,77.5,29.87,SSE,161,0.0,0.0,85,0.00,,FEW,0.00,0.00,VWS V14.01,2013-10-23 01:26:00,
2013-10-22 21:27:00,82.5,77.5,29.87,SSE,161,0.0,0.0,85,0.00,,FEW,0.00,0.00,VWS V14.01,2013-10-23 01:27:00,
2013-10-22 21:28:00,82.5,77.5,29.87,SSE,161,0.0,0.0,85,0.00,,FEW,0.00,0.00,VWS V14.01,2013-10-23 01:28:00,
2013-10-22 21:29:00,82.5,77.5,29.87,SSE,161,0.0,0.0,85,0.00,,FEW,0.00,0.00,VWS V14.01,2013-10-23 01:29:00,
2013-10-22 21:30:00,82.5,77.5,29.87,SSE,161,0.0,0.0,85,0.00,,FEW,0.00,0.00,VWS V14.01,2013-10-23 01:30:00,
2013-10-22 21:31:00,82.5,77.5,29.87,SSE,161,0.0,0.0,85,0.00,,FEW,0.00,0.00,VWS V14.01,2013-10-23 01:31:00,
2013-10-22 21:32:00,82.5,77.5,29.87,SSE,161,0.0,0.0,85,0.00,,FEW,0.00,0.00,VWS V14.01,2013-10-23 01:32:00,
2013-10-22 21:33:00,82.5,77.5,29.88,SSE,161,0.0,1.0,85,0.00,,FEW,0.00,0.00,VWS V14.01,2013-10-23 01:33:00,
2013-10-22 21:34:00,82.5,77.5,29.88,SSE,161,0.0,1.0,85,0.00,,FEW,0.00,0.00,VWS V14.01,2013-10-23 01:34:00,
2013-10-22 21:35:00,82.5,77.5,29.88,SSE,161,0.0,1.0,85,0.00,,FEW,0.00,0.00,VWS V14.01,2013-10-23 01:35:00,
2013-10-22 21:37:00,82.5,77.5,29.88,SSE,161,0.0,1.0,85,0.00,,FEW,0.00,0.00,VWS V14.01,2013-10-23 01:37:00,
2013-10-22 21:39:00,82.5,77.5,29.88,SSE,161,0.0,1.0,85,0.00,,FEW,0.00,0.00,VWS V14.01,2013-10-23 01:39:00,
2013-10-22 21:40:00,82.5,77.5,29.88,SSE,161,1.0,1.0,85,0.00,,FEW,0.00,0.00,VWS V14.01,2013-10-23 01:40:00,
2013-10-22 21:42:00,82.5,77.5,29.88,SSE,161,0.0,1.0,85,0.00,,FEW,0.00,0.00,VWS V14.01,2013-10-23 01:42:00,
2013-10-22 21:44:00,82.5,77.9,29.88,SSE,161,0.0,2.0,86,0.00,,FEW,0.00,0.00,VWS V14.01,2013-10-23 01:44:00,
2013-10-22 21:45:00,82.5,77.9,29.88,SSE,161,0.0,1.0,86,0.00,,FEW,0.00,0.00,VWS V14.01,2013-10-23 01:45:00,
2013-10-22 21:47:00,82.5,77.9,29.88,SSE,161,0.0,2.0,86,0.00,,FEW,0.00,0.00,VWS V14.01,2013-10-23 01:47:00,
2013-10-22 21:49:00,82.5,77.9,29.89,SSE,161,0.0,2.0,86,0.00,,FEW,0.00,0.00,VWS V14.01,2013-10-23 01:49:00,
2013-10-22 21:50:00,82.5,77.9,29.89,SSE,161,1.0,2.0,86,0.00,,FEW,0.00,0.00,VWS V14.01,2013-10-23 01:50:00,
2013-10-22 21:52:00,82.5,77.9,29.89,SSE,161,0.0,2.0,86,0.00,,FEW,0.00,0.00,VWS V14.01,2013-10-23 01:52:00,
2013-10-22 21:54:00,82.5,77.9,29.89,SSE,167,1.0,2.0,86,0.00,,FEW,0.00,0.00,VWS V14.01,2013-10-23 01:54:00,
2013-10-22 21:55:00,82.5,77.9,29.89,SSE,166,1.0,2.0,86,0.00,,FEW,0.00,0.00,VWS V14.01,2013-10-23 01:55:00,
2013-10-22 21:56:00,82.5,77.9,29.89,SSE,167,1.0,2.0,86,0.00,,FEW,0.00,0.00,VWS V14.01,2013-10-23 01:56:00,
2013-10-22 21:57:00,82.5,77.9,29.89,SSE,158,1.0,2.0,86,0.00,,FEW,0.00,0.00,VWS V14.01,2013-10-23 01:57:00,
2013-10-22 21:59:00,82.5,77.9,29.89,SSE,157,1.0,3.0,86,0.00,,FEW,0.00,0.00,VWS V14.01,2013-10-23 01:59:00,
2013-10-22 22:01:00,82.5,77.9,29.89,SSE,164,1.0,3.0,86,0.00,,FEW,0.00,0.00,VWS V14.01,2013-10-23 02:01:00,
2013-10-22 22:02:00,82.5,77.9,29.89,SSE,157,1.0,3.0,86,0.00,,FEW,0.00,0.00,VWS V14.01,2013-10-23 02:02:00,
2013-10-22 22:04:00,82.5,77.9,29.90,South,177,2.0,3.0,86,0.00,,FEW,0.00,0.00,VWS V14.01,2013-10-23 02:04:00,
2013-10-22 22:06:00,82.5,77.9,29.90,South,175,1.0,2.0,86,0.00,,FEW,0.00,0.00,VWS V14.01,2013-10-23 02:06:00,
2013-10-22 22:07:00,82.4,77.8,29.90,South,173,1.0,2.0,86,0.00,,FEW,0.00,0.00,VWS V14.01,2013-10-23 02:07:00,
2013-10-22 22:09:00,82.4,77.8,29.90,South,173,0.0,2.0,86,0.00,,FEW,0.00,0.00,VWS V14.01,2013-10-23 02:09:00,
2013-10-22 22:11:00,82.4,77.8,29.90,South,178,1.0,2.0,86,0.00,,FEW,0.00,0.00,VWS V14.01,2013-10-23 02:11:00,
2013-10-22 22:12:00,82.4,77.8,29.90,South,186,0.0,2.0,86,0.00,,FEW,0.00,0.00,VWS V14.01,2013-10-23 02:12:00,
2013-10-22 22:14:00,82.4,77.8,29.90,South,190,0.0,2.0,86,0.00,,FEW,0.00,0.00,VWS V14.01,2013-10-23 02:14:00,
2013-10-22 22:16:00,82.4,77.8,29.90,South,190,0.0,2.0,86,0.00,,FEW,0.00,0.00,VWS V14.01,2013-10-23 02:16:00,
2013-10-22 22:17:00,82.4,77.8,29.90,South,190,0.0,2.0,86,0.00,,FEW,0.00,0.00,VWS V14.01,2013-10-23 02:17:00,
2013-10-22 22:18:00,82.4,77.8,29.90,SSW,194,2.0,2.0,86,0.00,,FEW,0.00,0.00,VWS V14.01,2013-10-23 02:18:00,
2013-10-22 22:19:00,82.4,77.8,29.90,South,169,1.0,3.0,86,0.00,,FEW,0.00,0.00,VWS V14.01,2013-10-23 02:19:00,
2013-10-22 22:21:00,82.4,77.8,29.90,SSW,199,0.0,4.0,86,0.00,,FEW,0.00,0.00,VWS V14.01,2013-10-23 02:21:00,
2013-10-22 22:22:00,82.4,77.8,29.90,SSW,199,0.0,4.0,86,0.00,,FEW,0.00,0.00,VWS V14.01,2013-10-23 02:22:00,
2013-10-22 22:24:00,82.4,77.8,29.90,SSW,199,0.0,4.0,86,0.00,,FEW,0.00,0.00,VWS V14.01,2013-10-23 02:24:00,
2013-10-22 22:26:00,82.3,77.7,29.90,SSW,196,1.0,1.0,86,0.00,,FEW,0.00,0.00,VWS V14.01,2013-10-23 02:26:00,
2013-10-22 22:27:00,82.3,77.7,29.90,SSW,196,1.0,1.0,86,0.00,,FEW,0.00,0.00,VWS V14.01,2013-10-23 02:27:00,
2013-10-22 22:28:00,82.3,77.7,29.90,SSW,193,0.0,1.0,86,0.00,,FEW,0.00,0.00,VWS V14.01,2013-10-23 02:28:00,
2013-10-22 22:29:00,82.3,77.7,29.90,SSW,193,1.0,1.0,86,0.00,,FEW,0.00,0.00,VWS V14.01,2013-10-23 02:29:00,
2013-10-22 22:32:00,82.3,77.7,29.90,South,185,2.0,3.0,86,0.00,,FEW,0.00,0.00,VWS V14.01,2013-10-23 02:32:00,
2013-10-22 22:33:00,82.3,77.7,29.90,SSW,195,0.0,3.0,86,0.00,,FEW,0.00,0.00,VWS V14.01,2013-10-23 02:33:00,
2013-10-22 22:34:00,82.3,77.7,29.90,SSW,195,2.0,2.0,86,0.00,,FEW,0.00,0.00,VWS V14.01,2013-10-23 02:34:00,
2013-10-22 22:37:00,82.3,77.7,29.90,SSW,195,0.0,3.0,86,0.00,,FEW,0.00,0.00,VWS V14.01,2013-10-23 02:37:00,
2013-10-22 22:38:00,82.3,77.7,29.90,SSW,195,0.0,3.0,86,0.00,,FEW,0.00,0.00,VWS V14.01,2013-10-23 02:38:00,
2013-10-22 22:39:00,82.3,77.7,29.90,SSW,195,0.0,3.0,86,0.00,,FEW,0.00,0.00,VWS V14.01,2013-10-23 02:39:00,
2013-10-22 22:42:00,82.3,77.7,29.90,South,179,3.0,3.0,86,0.00,,FEW,0.00,0.00,VWS V14.01,2013-10-23 02:42:00,
2013-10-22 22:43:00,82.3,77.7,29.90,South,179,1.0,3.0,86,0.00,,FEW,0.00,0.00,VWS V14.01,2013-10-23 02:43:00,
2013-10-22 22:44:00,82.3,77.7,29.90,South,170,1.0,2.0,86,0.00,,FEW,0.00,0.00,VWS V14.01,2013-10-23 02:44:00,
2013-10-22 22:45:00,82.3,77.7,29.90,South,170,0.0,2.0,86,0.00,,FEW,0.00,0.00,VWS V14.01,2013-10-23 02:45:00,
2013-10-22 22:47:00,82.3,77.7,29.90,South,170,0.0,2.0,86,0.00,,FEW,0.00,0.00,VWS V14.01,2013-10-23 02:47:00,
2013-10-22 22:48:00,82.3,77.7,29.90,South,171,2.0,2.0,86,0.00,,FEW,0.00,0.00,VWS V14.01,2013-10-23 02:48:00,
2013-10-22 22:50:00,82.3,77.7,29.90,South,171,1.0,2.0,86,0.00,,FEW,0.00,0.00,VWS V14.01,2013-10-23 02:50:00,
2013-10-22 22:52:00,82.3,77.7,29.90,South,171,2.0,3.0,86,0.00,,FEW,0.00,0.00,VWS V14.01,2013-10-23 02:52:00,
2013-10-22 22:53:00,82.4,77.8,29.90,South,171,2.0,3.0,86,0.00,,FEW,0.00,0.00,VWS V14.01,2013-10-23 02:53:00,
2013-10-22 22:54:00,82.4,77.8,29.90,South,171,2.0,3.0,86,0.00,,FEW,0.00,0.00,VWS V14.01,2013-10-23 02:54:00,
2013-10-22 22:55:00,82.4,77.8,29.90,South,171,0.0,1.0,86,0.00,,FEW,0.00,0.00,VWS V14.01,2013-10-23 02:55:00,
2013-10-22 22:58:00,82.4,77.8,29.90,South,171,0.0,1.0,86,0.00,,FEW,0.00,0.00,VWS V14.01,2013-10-23 02:58:00,
2013-10-22 22:59:00,82.4,77.8,29.90,South,171,0.0,1.0,86,0.00,,FEW,0.00,0.00,VWS V14.01,2013-10-23 02:59:00,
2013-10-22 23:00:00,82.4,77.8,29.90,South,171,0.0,1.0,86,0.00,,FEW,0.00,0.00,VWS V14.01,2013-10-23 03:00:00,
2013-10-22 23:03:00,82.4,77.8,29.90,South,171,0.0,3.0,86,0.00,,FEW,0.00,0.00,VWS V14.01,2013-10-23 03:03:00,
2013-10-22 23:04:00,82.4,77.8,29.89,South,171,0.0,3.0,86,0.00,,FEW,0.00,0.00,VWS V14.01,2013-10-23 03:04:00,
2013-10-22 23:05:00,82.4,77.8,29.89,South,171,0.0,1.0,86,0.00,,FEW,0.00,0.00,VWS V14.01,2013-10-23 03:05:00,
2013-10-22 23:06:00,82.4,77.8,29.89,South,171,0.0,1.0,86,0.00,,FEW,0.00,0.00,VWS V14.01,2013-10-23 03:06:00,
2013-10-22 23:08:00,82.4,77.8,29.89,South,171,0.0,1.0,86,0.00,,FEW,0.00,0.00,VWS V14.01,2013-10-23 03:08:00,
2013-10-22 23:09:00,82.4,77.8,29.89,South,171,0.0,1.0,86,0.00,,FEW,0.00,0.00,VWS V14.01,2013-10-23 03:09:00,
2013-10-22 23:10:00,82.4,77.8,29.89,South,171,0.0,1.0,86,0.00,,FEW,0.00,0.00,VWS V14.01,2013-10-23 03:10:00,
2013-10-22 23:11:00,82.4,77.8,29.89,South,171,0.0,1.0,86,0.00,,FEW,0.00,0.00,VWS V14.01,2013-10-23 03:11:00,
2013-10-22 23:13:00,82.4,77.8,29.89,South,171,0.0,1.0,86,0.00,,FEW,0.00,0.00,VWS V14.01,2013-10-23 03:13:00,
2013-10-22 23:14:00,82.3,77.7,29.89,South,171,1.0,1.0,86,0.00,,FEW,0.00,0.00,VWS V14.01,2013-10-23 03:14:00,
2013-10-22 23:15:00,82.3,77.7,29.89,South,171,1.0,2.0,86,0.00,,FEW,0.00,0.00,VWS V14.01,2013-10-23 03:15:00,
2013-10-22 23:16:00,82.3,77.7,29.89,South,171,0.0,2.0,86,0.00,,FEW,0.00,0.00,VWS V14.01,2013-10-23 03:16:00,
2013-10-22 23:18:00,82.3,77.7,29.90,South,171,0.0,2.0,86,0.00,,FEW,0.00,0.00,VWS V14.01,2013-10-23 03:18:00,
2013-10-22 23:19:00,82.3,77.7,29.90,South,171,1.0,2.0,86,0.00,,FEW,0.00,0.00,VWS V14.01,2013-10-23 03:19:00,
2013-10-22 23:20:00,82.3,77.7,29.90,South,171,0.0,2.0,86,0.00,,FEW,0.00,0.00,VWS V14.01,2013-10-23 03:20:00,
2013-10-22 23:21:00,82.3,77.7,29.90,South,171,0.0,2.0,86,0.00,,FEW,0.00,0.00,VWS V14.01,2013-10-23 03:21:00,
2013-10-22 23:22:00,82.3,77.7,29.90,South,171,0.0,2.0,86,0.00,,FEW,0.00,0.00,VWS V14.01,2013-10-23 03:22:00,
2013-10-22 23:23:00,82.3,77.7,29.90,South,171,1.0,2.0,86,0.00,,FEW,0.00,0.00,VWS V14.01,2013-10-23 03:23:00,
2013-10-22 23:24:00,82.2,77.6,29.90,South,171,0.0,0.0,86,0.00,,FEW,0.00,0.00,VWS V14.01,2013-10-23 03:24:00,
2013-10-22 23:25:00,82.2,77.6,29.90,South,171,0.0,0.0,86,0.00,,FEW,0.00,0.00,VWS V14.01,2013-10-23 03:25:00,
2013-10-22 23:26:00,82.2,77.6,29.90,South,171,1.0,1.0,86,0.00,,FEW,0.00,0.00,VWS V14.01,2013-10-23 03:26:00,
2013-10-22 23:27:00,82.2,77.6,29.90,South,171,0.0,1.0,86,0.00,,FEW,0.00,0.00,VWS V14.01,2013-10-23 03:27:00,
2013-10-22 23:29:00,82.2,77.6,29.90,South,171,0.0,1.0,86,0.00,,FEW,0.00,0.00,VWS V14.01,2013-10-23 03:29:00,
2013-10-22 23:30:00,82.2,77.6,29.90,South,171,0.0,1.0,86,0.00,,FEW,0.00,0.00,VWS V14.01,2013-10-23 03:30:00,
2013-10-22 23:31:00,82.2,77.6,29.90,South,171,0.0,1.0,86,0.00,,FEW,0.00,0.00,VWS V14.01,2013-10-23 03:31:00,
2013-10-22 23:32:00,82.2,77.6,29.90,South,171,0.0,1.0,86,0.00,,FEW,0.00,0.00,VWS V14.01,2013-10-23 03:32:00,
2013-10-22 23:34:00,82.3,77.7,29.89,South,171,0.0,0.0,86,0.00,,FEW,0.00,0.00,VWS V14.01,2013-10-23 03:34:00,
2013-10-22 23:35:00,82.3,77.7,29.89,South,171,2.0,2.0,86,0.00,,FEW,0.00,0.00,VWS V14.01,2013-10-23 03:35:00,
2013-10-22 23:36:00,82.3,77.7,29.89,South,171,0.0,2.0,86,0.00,,FEW,0.00,0.00,VWS V14.01,2013-10-23 03:36:00,
2013-10-22 23:37:00,82.3,77.7,29.89,South,171,0.0,3.0,86,0.00,,FEW,0.00,0.00,VWS V14.01,2013-10-23 03:37:00,
2013-10-22 23:39:00,82.3,77.7,29.89,South,171,1.0,3.0,86,0.00,,FEW,0.00,0.00,VWS V14.01,2013-10-23 03:39:00,
2013-10-22 23:40:00,82.3,77.7,29.89,South,171,2.0,3.0,86,0.00,,FEW,0.00,0.00,VWS V14.01,2013-10-23 03:40:00,
2013-10-22 23:41:00,82.3,77.7,29.89,South,171,0.0,3.0,86,0.00,,FEW,0.00,0.00,VWS V14.01,2013-10-23 03:41:00,
2013-10-22 23:43:00,82.3,77.7,29.89,South,182,4.0,4.0,86,0.00,,FEW,0.00,0.00,VWS V14.01,2013-10-23 03:43:00,
2013-10-22 23:44:00,82.3,77.7,29.89,South,182,1.0,2.0,86,0.00,,FEW,0.00,0.00,VWS V14.01,2013-10-23 03:44:00,
2013-10-22 23:45:00,82.3,77.7,29.89,South,182,2.0,3.0,86,0.00,,FEW,0.00,0.00,VWS V14.01,2013-10-23 03:45:00,
2013-10-22 23:46:00,82.3,77.7,29.89,South,182,0.0,3.0,86,0.00,,FEW,0.00,0.00,VWS V14.01,2013-10-23 03:46:00,
2013-10-22 23:48:00,82.3,78.1,29.88,South,182,0.0,3.0,87,0.00,,FEW,0.00,0.00,VWS V14.01,2013-10-23 03:48:00,
2013-10-22 23:49:00,82.3,78.1,29.88,South,182,2.0,3.0,87,0.00,,FEW,0.00,0.00,VWS V14.01,2013-10-23 03:49:00,
2013-10-22 23:50:00,82.3,78.1,29.88,South,182,0.0,3.0,87,0.00,,FEW,0.00,0.00,VWS V14.01,2013-10-23 03:50:00,
2013-10-22 23:51:00,82.3,78.1,29.88,South,182,0.0,3.0,87,0.00,,FEW,0.00,0.00,VWS V14.01,2013-10-23 03:51:00,
2013-10-22 23:53:00,82.3,78.1,29.88,South,182,1.0,3.0,87,0.00,,FEW,0.00,0.00,VWS V14.01,2013-10-23 03:53:00,
2013-10-22 23:54:00,82.3,78.1,29.88,South,182,2.0,3.0,87,0.00,,FEW,0.00,0.00,VWS V14.01,2013-10-23 03:54:00,
2013-10-22 23:55:00,82.3,78.1,29.88,South,182,1.0,3.0,87,0.00,,FEW,0.00,0.00,VWS V14.01,2013-10-23 03:55:00,
2013-10-22 23:56:00,82.3,78.1,29.88,South,182,1.0,3.0,87,0.00,,FEW,0.00,0.00,VWS V14.01,2013-10-23 03:56:00,
2013-10-22 23:57:00,82.3,78.1,29.88,South,182,0.0,3.0,87,0.00,,FEW,0.00,0.00,VWS V14.01,2013-10-23 03:57:00,
2013-10-22 23:59:00,82.3,78.1,29.88,South,182,3.0,3.0,87,0.00,,FEW,0.00,0.00,VWS V14.01,2013-10-23 03:59:00,